| time (UTC) | temp C | wind direction | speed KPH | gust KPH | rain 1hr cm | rain 24hr cm | rain mn cm | humidity % | barometer mb |
| 20260507213750 | 3 | 85 | 0.0 | 0.0 | 0.00 | 0.00 | 0.00 | 73 | 1412.2 |
| 20260507213550 | 3 | 86 | 0.0 | 0.0 | 0.00 | 0.00 | 0.00 | 73 | 1412.3 |
| 20260507213350 | 4 | 90 | 0.0 | 0.0 | 0.00 | 0.00 | 0.00 | 72 | 1412.5 |
| 20260507213150 | 4 | 90 | 0.0 | 0.0 | 0.00 | 0.00 | 0.00 | 72 | 1412.6 |
| 20260507212950 | 4 | 90 | 0.0 | 0.0 | 0.00 | 0.00 | 0.00 | 72 | 1412.5 |
| 20260507212750 | 4 | 91 | 0.0 | 0.0 | 0.00 | 0.00 | 0.00 | 72 | 1412.4 |
| 20260507212550 | 4 | 94 | 0.0 | 0.0 | 0.00 | 0.00 | 0.00 | 72 | 1412.4 |
| 20260507212350 | 3 | 91 | 0.0 | 1.6 | 0.00 | 0.00 | 0.00 | 72 | 1412.3 |
| 20260507212150 | 4 | 90 | 0.0 | 1.6 | 0.00 | 0.00 | 0.00 | 72 | 1412.3 |
| 20260507211950 | 4 | 87 | 0.0 | 1.6 | 0.00 | 0.00 | 0.00 | 72 | 1412.4 |
| 20260507211750 | 4 | 90 | 0.0 | 1.6 | 0.00 | 0.00 | 0.00 | 72 | 1412.6 |
| 20260507211550 | 4 | 103 | 0.0 | 1.6 | 0.00 | 0.00 | 0.00 | 71 | 1412.7 |
| 20260507211350 | 4 | 105 | 0.0 | 0.0 | 0.00 | 0.00 | 0.00 | 71 | 1412.6 |
| 20260507211150 | 4 | 102 | 0.0 | 0.0 | 0.00 | 0.00 | 0.00 | 71 | 1412.6 |
| 20260507210950 | 4 | 108 | 0.0 | 0.0 | 0.00 | 0.00 | 0.00 | 71 | 1412.5 |
| 20260507210945 | 4 | 145 | 0.0 | 0.0 | 0.00 | 0.00 | 0.00 | 71 | 1412.5 |
| 20260507210550 | 4 | 154 | 0.0 | 0.0 | 0.00 | 0.00 | 0.00 | 71 | 1412.4 |
| 20260507210350 | 4 | 163 | 0.0 | 0.0 | 0.00 | 0.00 | 0.00 | 71 | 1412.5 |
| 20260507210150 | 4 | 139 | 0.0 | 0.0 | 0.00 | 0.00 | 0.00 | 70 | 1412.6 |
| 20260507205950 | 4 | 113 | 0.0 | 0.0 | 0.00 | 0.00 | 0.00 | 70 | 1412.7 |
| 20260507205750 | 4 | 138 | 0.0 | 0.0 | 0.00 | 0.00 | 0.00 | 70 | 1412.8 |
| 20260507205550 | 4 | 124 | 0.0 | 0.0 | 0.00 | 0.00 | 0.00 | 70 | 1412.8 |
| 20260507205350 | 4 | 102 | 0.0 | 0.0 | 0.00 | 0.00 | 0.00 | 70 | 1412.9 |
| 20260507205150 | 4 | 92 | 0.0 | 0.0 | 0.00 | 0.00 | 0.00 | 70 | 1413.1 |
| 20260507204950 | 4 | 125 | 0.0 | 0.0 | 0.00 | 0.00 | 0.00 | 69 | 1413.2 |
| 20260507204750 | 4 | 79 | 0.0 | 0.0 | 0.00 | 0.00 | 0.00 | 69 | 1413.5 |
| 20260507204550 | 4 | 101 | 0.0 | 0.0 | 0.00 | 0.00 | 0.00 | 69 | 1413.6 |
| 20260507204350 | 5 | 96 | 0.0 | 1.6 | 0.00 | 0.00 | 0.00 | 69 | 1413.7 |
| 20260507204150 | 5 | 93 | 0.0 | 1.6 | 0.00 | 0.00 | 0.00 | 69 | 1413.7 |
| 20260507203950 | 5 | 105 | 0.0 | 1.6 | 0.00 | 0.00 | 0.00 | 68 | 1413.7 |
| 20260507203750 | 5 | 109 | 0.0 | 1.6 | 0.00 | 0.00 | 0.00 | 68 | 1413.8 |
| 20260507203550 | 5 | 153 | 0.0 | 1.6 | 0.00 | 0.00 | 0.00 | 68 | 1413.8 |
| 20260507203350 | 5 | 167 | 0.0 | 1.6 | 0.00 | 0.00 | 0.00 | 68 | 1414.0 |
| 20260507203150 | 5 | 123 | 0.0 | 1.6 | 0.00 | 0.00 | 0.00 | 67 | 1414.2 |
| 20260507202950 | 5 | 107 | 0.0 | 1.6 | 0.00 | 0.00 | 0.00 | 67 | 1411.0 |
| 20260507202752 | 5 | 128 | 0.0 | 0.0 | 0.00 | 0.00 | 0.00 | 67 | 1411.0 |
| 20260507202750 | 5 | 128 | 0.0 | 0.0 | 0.00 | 0.00 | 0.00 | 67 | 1411.0 |
| 20260507202552 | 5 | 119 | 0.0 | 0.0 | 0.00 | 0.00 | 0.00 | 66 | 1414.5 |
| 20260507202550 | 5 | 119 | 0.0 | 0.0 | 0.00 | 0.00 | 0.00 | 66 | 1414.5 |
| 20260507202350 | 5 | 86 | 0.0 | 0.0 | 0.00 | 0.00 | 0.00 | 66 | 1411.4 |
| 20260507202152 | 5 | 82 | 0.0 | 0.0 | 0.00 | 0.00 | 0.00 | 66 | 1411.7 |
| 20260507202150 | 5 | 82 | 0.0 | 0.0 | 0.00 | 0.00 | 0.00 | 66 | 1411.7 |
| 20260507201950 | 5 | 90 | 0.0 | 0.0 | 0.00 | 0.00 | 0.00 | 66 | 1412.0 |
| 20260507201750 | 5 | 95 | 0.0 | 0.0 | 0.00 | 0.00 | 0.00 | 66 | 1412.3 |
| 20260507201552 | 5 | 90 | 0.0 | 0.0 | 0.00 | 0.00 | 0.00 | 65 | 1412.4 |
| 20260507201550 | 5 | 90 | 0.0 | 0.0 | 0.00 | 0.00 | 0.00 | 65 | 1412.4 |
| 20260507201350 | 5 | 90 | 0.0 | 0.0 | 0.00 | 0.00 | 0.00 | 65 | 1412.5 |
| 20260507201152 | 5 | 90 | 0.0 | 0.0 | 0.00 | 0.00 | 0.00 | 64 | 1412.6 |
| 20260507201150 | 5 | 90 | 0.0 | 0.0 | 0.00 | 0.00 | 0.00 | 64 | 1412.6 |
| 20260507200950 | 6 | 90 | 0.0 | 0.0 | 0.00 | 0.00 | 0.00 | 64 | 1412.9 |
| 20260507200750 | 6 | 90 | 0.0 | 0.0 | 0.00 | 0.00 | 0.00 | 64 | 1413.1 |
| 20260507200552 | 6 | 90 | 0.0 | 0.0 | 0.00 | 0.00 | 0.00 | 63 | 1413.4 |
| 20260507200550 | 6 | 90 | 0.0 | 0.0 | 0.00 | 0.00 | 0.00 | 63 | 1413.4 |
| 20260507200352 | 6 | 109 | 0.0 | 0.0 | 0.00 | 0.00 | 0.00 | 63 | 1413.8 |
| 20260507200350 | 6 | 109 | 0.0 | 0.0 | 0.00 | 0.00 | 0.00 | 63 | 1413.8 |
| 20260507200150 | 6 | 110 | 0.0 | 0.0 | 0.00 | 0.00 | 0.00 | 62 | 1414.1 |
| 20260507195950 | 6 | 90 | 0.0 | 0.0 | 0.00 | 0.00 | 0.00 | 62 | 1414.5 |
| 20260507195750 | 6 | 90 | 0.0 | 0.0 | 0.00 | 0.00 | 0.00 | 61 | 1415.0 |
| 20260507195553 | 7 | 88 | 0.0 | 0.0 | 0.00 | 0.00 | 0.00 | 61 | 1415.5 |
| 20260507195550 | 7 | 88 | 0.0 | 0.0 | 0.00 | 0.00 | 0.00 | 61 | 1415.5 |
| 20260507195350 | 7 | 88 | 0.0 | 0.0 | 0.00 | 0.00 | 0.00 | 61 | 1416.0 |
| 20260507195150 | 7 | 91 | 0.0 | 1.6 | 0.00 | 0.00 | 0.00 | 60 | 1416.4 |
| 20260507195145 | 7 | 92 | 0.0 | 1.6 | 0.00 | 0.00 | 0.00 | 60 | 1416.9 |
| 20260507194750 | 7 | 107 | 0.0 | 1.6 | 0.00 | 0.00 | 0.00 | 60 | 1414.1 |
| 20260507194550 | 7 | 115 | 0.0 | 1.6 | 0.00 | 0.00 | 0.00 | 60 | 1414.4 |
| 20260507194350 | 7 | 161 | 0.0 | 1.6 | 0.00 | 0.00 | 0.00 | 60 | 1414.5 |
| 20260507194150 | 8 | 122 | 0.0 | 1.6 | 0.00 | 0.00 | 0.00 | 59 | 1414.7 |
| 20260507193950 | 8 | 122 | 0.0 | 1.6 | 0.00 | 0.00 | 0.00 | 59 | 1415.0 |
| 20260507193750 | 8 | 151 | 0.0 | 3.2 | 0.00 | 0.00 | 0.00 | 59 | 1415.1 |
| 20260507193550 | 8 | 171 | 0.0 | 3.2 | 0.00 | 0.00 | 0.00 | 58 | 1415.2 |
| 20260507193350 | 8 | 208 | 0.0 | 3.2 | 0.00 | 0.00 | 0.00 | 58 | 1415.4 |
| 20260507193346 | 8 | 208 | 0.0 | 3.2 | 0.00 | 0.00 | 0.00 | 58 | 1415.4 |
| 20260507193150 | 8 | 185 | 0.0 | 3.2 | 0.00 | 0.00 | 0.00 | 58 | 1415.7 |
| 20260507192950 | 8 | 190 | 0.0 | 3.2 | 0.00 | 0.00 | 0.00 | 58 | 1416.0 |
| 20260507192750 | 8 | 173 | 0.0 | 3.2 | 0.00 | 0.00 | 0.00 | 58 | 1416.2 |
| 20260507192550 | 8 | 171 | 0.0 | 3.2 | 0.00 | 0.00 | 0.00 | 58 | 1416.4 |
| 20260507192350 | 8 | 183 | 0.0 | 3.2 | 0.00 | 0.00 | 0.00 | 57 | 1416.5 |
| 20260507192150 | 8 | 187 | 0.0 | 3.2 | 0.00 | 0.00 | 0.00 | 58 | 1416.6 |
| 20260507191950 | 8 | 207 | 0.0 | 3.2 | 0.00 | 0.00 | 0.00 | 58 | 1416.6 |
| 20260507191750 | 8 | 184 | 0.0 | 3.2 | 0.00 | 0.00 | 0.00 | 58 | 1416.6 |
| 20260507191550 | 8 | 193 | 0.0 | 3.2 | 0.00 | 0.00 | 0.00 | 58 | 1416.5 |
| 20260507191350 | 8 | 192 | 0.0 | 3.2 | 0.00 | 0.00 | 0.00 | 58 | 1416.6 |
| 20260507191150 | 8 | 211 | 0.0 | 1.6 | 0.00 | 0.00 | 0.00 | 57 | 1416.6 |
| 20260507190950 | 8 | 188 | 0.0 | 1.6 | 0.00 | 0.00 | 0.00 | 57 | 1416.6 |
| 20260507190750 | 8 | 195 | 0.0 | 1.6 | 0.00 | 0.00 | 0.00 | 57 | 1416.7 |
| 20260507190550 | 8 | 171 | 0.0 | 1.6 | 0.00 | 0.00 | 0.00 | 56 | 1416.9 |
| 20260507190350 | 8 | 142 | 0.0 | 3.2 | 0.00 | 0.00 | 0.00 | 56 | 1417.1 |
| 20260507190150 | 9 | 148 | 0.0 | 3.2 | 0.00 | 0.00 | 0.00 | 56 | 1417.4 |
| 20260507185950 | 9 | 139 | 0.0 | 3.2 | 0.00 | 0.00 | 0.00 | 55 | 1417.6 |
| 20260507185750 | 9 | 170 | 0.0 | 3.2 | 0.00 | 0.00 | 0.00 | 55 | 1417.8 |
| 20260507185550 | 9 | 181 | 0.0 | 3.2 | 0.00 | 0.00 | 0.00 | 54 | 1417.9 |
| 20260507185350 | 9 | 227 | 0.0 | 3.2 | 0.00 | 0.00 | 0.00 | 53 | 1418.0 |
| 20260507185150 | 9 | 169 | 0.0 | 3.2 | 0.00 | 0.00 | 0.00 | 52 | 1418.3 |
| 20260507184950 | 9 | 192 | 0.0 | 3.2 | 0.00 | 0.00 | 0.00 | 51 | 1418.5 |
| 20260507184750 | 10 | 169 | 0.0 | 3.2 | 0.00 | 0.00 | 0.00 | 50 | 1418.8 |
| 20260507184550 | 10 | 221 | 0.0 | 1.6 | 0.00 | 0.00 | 0.00 | 49 | 1419.0 |
| 20260507184350 | 10 | 155 | 0.0 | 1.6 | 0.00 | 0.00 | 0.00 | 48 | 1419.1 |
| 20260507184150 | 10 | 182 | 0.0 | 1.6 | 0.00 | 0.00 | 0.00 | 47 | 1419.2 |
| 20260507183950 | 10 | 128 | 0.0 | 3.2 | 0.00 | 0.00 | 0.00 | 47 | 1419.5 |
| 20260507183750 | 10 | 138 | 0.0 | 3.2 | 0.00 | 0.00 | 0.00 | 46 | 1419.7 |
| 20260507183550 | 10 | 224 | 0.0 | 3.2 | 0.00 | 0.00 | 0.00 | 45 | 1420.0 |
| 20260507183350 | 10 | 279 | 0.0 | 3.2 | 0.00 | 0.00 | 0.00 | 45 | 1420.4 |
| 20260507183150 | 10 | 176 | 0.0 | 3.2 | 0.00 | 0.00 | 0.00 | 45 | 1420.8 |
| 20260507182950 | 11 | 207 | 0.0 | 3.2 | 0.00 | 0.00 | 0.00 | 44 | 1421.2 |
| 20260507182750 | 11 | 170 | 0.0 | 3.2 | 0.00 | 0.00 | 0.00 | 44 | 1421.6 |
| 20260507182550 | 11 | 179 | 0.0 | 3.2 | 0.00 | 0.00 | 0.00 | 43 | 1422.3 |
| 20260507182350 | 11 | 206 | 0.0 | 3.2 | 0.00 | 0.00 | 0.00 | 42 | 1423.4 |
| 20260507182150 | 12 | 175 | 0.0 | 3.2 | 0.00 | 0.00 | 0.00 | 41 | 1424.9 |
| 20260507181950 | 13 | 200 | 0.0 | 3.2 | 0.00 | 0.00 | 0.00 | 39 | 1427.1 |
| 20260507181750 | 14 | 189 | 0.0 | 4.8 | 0.00 | 0.00 | 0.00 | 38 | 1430.0 |
| 20260507181550 | 15 | 173 | 0.0 | 4.8 | 0.00 | 0.00 | 0.00 | 36 | 1432.8 |
| 20260507181350 | 16 | 165 | 0.0 | 4.8 | 0.00 | 0.00 | 0.00 | 35 | 1434.8 |
| 20260507181150 | 16 | 175 | 0.0 | 4.8 | 0.00 | 0.00 | 0.00 | 34 | 1435.4 |
| 20260507180950 | 17 | 151 | 1.6 | 4.8 | 0.00 | 0.00 | 0.00 | 34 | 1435.9 |
| 20260507180750 | 17 | 165 | 0.0 | 3.2 | 0.00 | 0.00 | 0.00 | 34 | 1436.2 |
| 20260507180550 | 17 | 133 | 0.0 | 3.2 | 0.00 | 0.00 | 0.00 | 34 | 1435.9 |
| 20260507180350 | 17 | 193 | 0.0 | 3.2 | 0.00 | 0.00 | 0.00 | 34 | 1436.3 |
| 20260507180150 | 17 | 155 | 0.0 | 3.2 | 0.00 | 0.00 | 0.00 | 34 | 1437.0 |
| 20260507175750 | 17 | 237 | 0.0 | 4.8 | 0.00 | 0.00 | 0.00 | 34 | 1436.6 |
| 20260507175550 | 17 | 169 | 0.0 | 4.8 | 0.00 | 0.00 | 0.00 | 34 | 1436.6 |
| 20260507175350 | 17 | 198 | 1.6 | 6.4 | 0.00 | 0.00 | 0.00 | 34 | 1436.9 |
| 20260507175150 | 17 | 161 | 0.0 | 6.4 | 0.00 | 0.00 | 0.00 | 34 | 1437.1 |
| 20260507174950 | 17 | 200 | 0.0 | 6.4 | 0.00 | 0.00 | 0.00 | 34 | 1436.5 |
| 20260507174750 | 17 | 219 | 1.6 | 6.4 | 0.00 | 0.00 | 0.00 | 34 | 1436.1 |
| 20260507174550 | 17 | 178 | 1.6 | 4.8 | 0.00 | 0.00 | 0.00 | 34 | 1436.5 |
| 20260507174350 | 17 | 160 | 1.6 | 4.8 | 0.00 | 0.00 | 0.00 | 35 | 1436.9 |
| 20260507174150 | 17 | 231 | 1.6 | 4.8 | 0.00 | 0.00 | 0.00 | 35 | 1437.3 |
| 20260507173950 | 18 | 215 | 1.6 | 3.2 | 0.00 | 0.00 | 0.00 | 34 | 1438.5 |
| 20260507173750 | 18 | 186 | 0.0 | 4.8 | 0.00 | 0.00 | 0.00 | 34 | 1439.4 |
| 20260507173550 | 18 | 166 | 1.6 | 4.8 | 0.00 | 0.00 | 0.00 | 33 | 1439.5 |
| 20260507173350 | 18 | 209 | 1.6 | 4.8 | 0.00 | 0.00 | 0.00 | 33 | 1439.8 |
| 20260507173150 | 18 | 223 | 0.0 | 4.8 | 0.00 | 0.00 | 0.00 | 33 | 1439.7 |
| 20260507172950 | 18 | 211 | 1.6 | 4.8 | 0.00 | 0.00 | 0.00 | 32 | 1440.0 |
| 20260507172750 | 19 | 177 | 0.0 | 3.2 | 0.00 | 0.00 | 0.00 | 32 | 1441.0 |
| 20260507172550 | 18 | 189 | 0.0 | 3.2 | 0.00 | 0.00 | 0.00 | 33 | 1440.8 |
| 20260507172350 | 18 | 175 | 0.0 | 3.2 | 0.00 | 0.00 | 0.00 | 32 | 1440.6 |
| 20260507172150 | 18 | 209 | 0.0 | 4.8 | 0.00 | 0.00 | 0.00 | 33 | 1440.7 |
| 20260507171950 | 18 | 167 | 0.0 | 4.8 | 0.00 | 0.00 | 0.00 | 33 | 1440.2 |
| 20260507171750 | 18 | 178 | 0.0 | 4.8 | 0.00 | 0.00 | 0.00 | 32 | 1439.9 |
| 20260507171550 | 18 | 237 | 1.6 | 4.8 | 0.00 | 0.00 | 0.00 | 32 | 1440.2 |
| 20260507171350 | 18 | 183 | 1.6 | 3.2 | 0.00 | 0.00 | 0.00 | 32 | 1440.7 |
| 20260507171150 | 19 | 154 | 0.0 | 3.2 | 0.00 | 0.00 | 0.00 | 33 | 1441.3 |
| 20260507170950 | 19 | 186 | 0.0 | 3.2 | 0.00 | 0.00 | 0.00 | 33 | 1441.0 |
| 20260507170750 | 18 | 180 | 1.6 | 3.2 | 0.00 | 0.00 | 0.00 | 33 | 1440.6 |
| 20260507170550 | 18 | 192 | 1.6 | 6.4 | 0.00 | 0.00 | 0.00 | 34 | 1440.5 |
| 20260507170350 | 18 | 176 | 0.0 | 6.4 | 0.00 | 0.00 | 0.00 | 34 | 1440.3 |
| 20260507170150 | 18 | 178 | 1.6 | 6.4 | 0.00 | 0.00 | 0.00 | 34 | 1439.9 |
| 20260507165950 | 18 | 169 | 1.6 | 6.4 | 0.00 | 0.00 | 0.00 | 34 | 1439.4 |
| 20260507165750 | 18 | 201 | 1.6 | 4.8 | 0.00 | 0.00 | 0.00 | 35 | 1439.6 |
| 20260507165550 | 18 | 181 | 1.6 | 4.8 | 0.00 | 0.00 | 0.00 | 35 | 1439.5 |
| 20260507165350 | 18 | 185 | 1.6 | 4.8 | 0.00 | 0.00 | 0.00 | 36 | 1438.8 |
| 20260507165150 | 18 | 157 | 1.6 | 4.8 | 0.00 | 0.00 | 0.00 | 36 | 1438.3 |
| 20260507164950 | 18 | 166 | 1.6 | 4.8 | 0.00 | 0.00 | 0.00 | 35 | 1438.3 |
| 20260507164750 | 17 | 193 | 1.6 | 4.8 | 0.00 | 0.00 | 0.00 | 36 | 1438.1 |
| 20260507164550 | 17 | 196 | 1.6 | 4.8 | 0.00 | 0.00 | 0.00 | 35 | 1437.8 |
| 20260507164350 | 17 | 198 | 1.6 | 8.0 | 0.00 | 0.00 | 0.00 | 35 | 1438.0 |
| 20260507164150 | 18 | 187 | 1.6 | 8.0 | 0.00 | 0.00 | 0.00 | 35 | 1438.5 |
| 20260507163950 | 18 | 188 | 1.6 | 8.0 | 0.00 | 0.00 | 0.00 | 34 | 1438.9 |
| 20260507163750 | 18 | 211 | 1.6 | 8.0 | 0.00 | 0.00 | 0.00 | 35 | 1439.0 |
| 20260507163550 | 18 | 203 | 1.6 | 6.4 | 0.00 | 0.00 | 0.00 | 35 | 1438.8 |
| 20260507163350 | 18 | 200 | 1.6 | 6.4 | 0.00 | 0.00 | 0.00 | 35 | 1438.9 |
| 20260507163150 | 18 | 192 | 1.6 | 6.4 | 0.00 | 0.00 | 0.00 | 35 | 1439.3 |
| 20260507162950 | 18 | 190 | 1.6 | 6.4 | 0.00 | 0.00 | 0.00 | 35 | 1439.6 |
| 20260507162750 | 18 | 183 | 1.6 | 6.4 | 0.00 | 0.00 | 0.00 | 35 | 1439.2 |
| 20260507162550 | 18 | 178 | 1.6 | 6.4 | 0.00 | 0.00 | 0.00 | 36 | 1438.9 |
| 20260507162350 | 18 | 219 | 1.6 | 6.4 | 0.00 | 0.00 | 0.00 | 36 | 1438.5 |
| 20260507162150 | 17 | 161 | 1.6 | 8.0 | 0.00 | 0.00 | 0.00 | 36 | 1438.0 |
| 20260507161950 | 17 | 226 | 1.6 | 8.0 | 0.00 | 0.00 | 0.00 | 35 | 1437.8 |
| 20260507161750 | 17 | 193 | 1.6 | 8.0 | 0.00 | 0.00 | 0.00 | 35 | 1437.8 |
| 20260507161550 | 17 | 159 | 1.6 | 8.0 | 0.00 | 0.00 | 0.00 | 35 | 1437.7 |
| 20260507161350 | 17 | 191 | 1.6 | 8.0 | 0.00 | 0.00 | 0.00 | 35 | 1437.4 |
| 20260507161150 | 17 | 195 | 1.6 | 6.4 | 0.00 | 0.00 | 0.00 | 36 | 1437.7 |
| 20260507160950 | 17 | 183 | 1.6 | 6.4 | 0.00 | 0.00 | 0.00 | 36 | 1437.2 |
| 20260507160750 | 17 | 206 | 1.6 | 6.4 | 0.00 | 0.00 | 0.00 | 36 | 1436.8 |
| 20260507160550 | 17 | 204 | 1.6 | 6.4 | 0.00 | 0.00 | 0.00 | 36 | 1436.4 |
| 20260507160350 | 17 | 180 | 1.6 | 6.4 | 0.00 | 0.00 | 0.00 | 37 | 1436.2 |
| 20260507160150 | 16 | 157 | 1.6 | 6.4 | 0.00 | 0.00 | 0.00 | 37 | 1435.5 |
| 20260507155950 | 16 | 184 | 1.6 | 6.4 | 0.00 | 0.00 | 0.00 | 37 | 1435.2 |
| 20260507155750 | 16 | 193 | 1.6 | 6.4 | 0.00 | 0.00 | 0.00 | 38 | 1434.7 |
| 20260507155550 | 16 | 181 | 1.6 | 6.4 | 0.00 | 0.00 | 0.00 | 38 | 1434.4 |
| 20260507155350 | 16 | 196 | 1.6 | 6.4 | 0.00 | 0.00 | 0.00 | 38 | 1434.1 |
| 20260507155150 | 16 | 226 | 1.6 | 6.4 | 0.00 | 0.00 | 0.00 | 38 | 1434.1 |
| 20260507154950 | 16 | 189 | 1.6 | 6.4 | 0.00 | 0.00 | 0.00 | 37 | 1434.7 |
| 20260507154750 | 16 | 185 | 1.6 | 6.4 | 0.00 | 0.00 | 0.00 | 36 | 1435.2 |
| 20260507154550 | 17 | 193 | 1.6 | 6.4 | 0.00 | 0.00 | 0.00 | 36 | 1435.9 |
| 20260507154350 | 17 | 212 | 1.6 | 6.4 | 0.00 | 0.00 | 0.00 | 36 | 1435.9 |
| 20260507154151 | 17 | 222 | 0.0 | 8.0 | 0.00 | 0.00 | 0.00 | 36 | 1435.9 |
| 20260507153950 | 17 | 176 | 1.6 | 8.0 | 0.00 | 0.00 | 0.00 | 35 | 1435.8 |
| 20260507153750 | 17 | 206 | 1.6 | 8.0 | 0.00 | 0.00 | 0.00 | 35 | 1435.6 |
| 20260507153550 | 16 | 179 | 1.6 | 8.0 | 0.00 | 0.00 | 0.00 | 36 | 1435.5 |
| 20260507153350 | 16 | 186 | 1.6 | 8.0 | 0.00 | 0.00 | 0.00 | 35 | 1435.2 |
| 20260507153150 | 16 | 187 | 1.6 | 6.4 | 0.00 | 0.00 | 0.00 | 35 | 1434.7 |
| 20260507152950 | 16 | 166 | 1.6 | 6.4 | 0.00 | 0.00 | 0.00 | 35 | 1434.5 |
| 20260507152750 | 16 | 190 | 1.6 | 6.4 | 0.00 | 0.00 | 0.00 | 35 | 1434.7 |
| 20260507152550 | 16 | 208 | 1.6 | 6.4 | 0.00 | 0.00 | 0.00 | 35 | 1434.5 |
| 20260507152350 | 16 | 190 | 1.6 | 6.4 | 0.00 | 0.00 | 0.00 | 35 | 1434.1 |
| 20260507152150 | 16 | 183 | 1.6 | 6.4 | 0.00 | 0.00 | 0.00 | 35 | 1433.9 |
| 20260507151950 | 16 | 212 | 3.2 | 6.4 | 0.00 | 0.00 | 0.00 | 35 | 1434.2 |
| 20260507151750 | 16 | 206 | 1.6 | 6.4 | 0.00 | 0.00 | 0.00 | 35 | 1434.9 |
| 20260507151550 | 16 | 191 | 1.6 | 6.4 | 0.00 | 0.00 | 0.00 | 35 | 1435.3 |
| 20260507151351 | 17 | 204 | 1.6 | 6.4 | 0.00 | 0.00 | 0.00 | 34 | 1435.7 |
| 20260507151150 | 17 | 208 | 1.6 | 6.4 | 0.00 | 0.00 | 0.00 | 35 | 1436.0 |
| 20260507150950 | 17 | 181 | 1.6 | 6.4 | 0.00 | 0.00 | 0.00 | 35 | 1435.7 |
| 20260507150750 | 16 | 178 | 1.6 | 9.7 | 0.00 | 0.00 | 0.00 | 34 | 1435.5 |
| 20260507150550 | 17 | 209 | 3.2 | 9.7 | 0.00 | 0.00 | 0.00 | 33 | 1436.0 |
| 20260507150150 | 17 | 158 | 1.6 | 9.7 | 0.00 | 0.00 | 0.00 | 34 | 1436.2 |
| 20260507145950 | 17 | 187 | 3.2 | 8.0 | 0.00 | 0.00 | 0.00 | 33 | 1436.3 |
| 20260507145750 | 17 | 180 | 1.6 | 8.0 | 0.00 | 0.00 | 0.00 | 33 | 1436.8 |
| 20260507145550 | 17 | 202 | 3.2 | 8.0 | 0.00 | 0.00 | 0.00 | 33 | 1437.5 |
| 20260507145350 | 18 | 169 | 1.6 | 8.0 | 0.00 | 0.00 | 0.00 | 33 | 1438.3 |
| 20260507145150 | 18 | 191 | 3.2 | 8.0 | 0.00 | 0.00 | 0.00 | 32 | 1438.6 |
| 20260507144950 | 18 | 193 | 1.6 | 8.0 | 0.00 | 0.00 | 0.00 | 32 | 1439.0 |
| 20260507144750 | 18 | 181 | 1.6 | 8.0 | 0.00 | 0.00 | 0.00 | 32 | 1439.1 |
| 20260507144550 | 18 | 211 | 3.2 | 8.0 | 0.00 | 0.00 | 0.00 | 32 | 1439.2 |
| 20260507144350 | 18 | 175 | 1.6 | 8.0 | 0.00 | 0.00 | 0.00 | 33 | 1439.9 |
| 20260507144150 | 18 | 215 | 3.2 | 8.0 | 0.00 | 0.00 | 0.00 | 32 | 1440.5 |
| 20260507143950 | 19 | 185 | 1.6 | 8.0 | 0.00 | 0.00 | 0.00 | 33 | 1441.0 |
| 20260507143750 | 19 | 191 | 3.2 | 8.0 | 0.00 | 0.00 | 0.00 | 33 | 1441.5 |
| 20260507143550 | 19 | 211 | 1.6 | 6.4 | 0.00 | 0.00 | 0.00 | 32 | 1442.1 |
| 20260507143350 | 20 | 207 | 1.6 | 9.7 | 0.00 | 0.00 | 0.00 | 32 | 1442.4 |
| 20260507143150 | 20 | 188 | 1.6 | 9.7 | 0.00 | 0.00 | 0.00 | 32 | 1442.8 |
| 20260507142950 | 20 | 187 | 1.6 | 9.7 | 0.00 | 0.00 | 0.00 | 31 | 1443.0 |
| 20260507142750 | 20 | 172 | 1.6 | 9.7 | 0.00 | 0.00 | 0.00 | 31 | 1443.3 |
| 20260507142550 | 20 | 198 | 1.6 | 9.7 | 0.00 | 0.00 | 0.00 | 30 | 1443.7 |
| 20260507142350 | 20 | 204 | 1.6 | 6.4 | 0.00 | 0.00 | 0.00 | 30 | 1444.4 |
| 20260507142150 | 20 | 192 | 1.6 | 6.4 | 0.00 | 0.00 | 0.00 | 30 | 1444.7 |
| 20260507141950 | 20 | 178 | 1.6 | 6.4 | 0.00 | 0.00 | 0.00 | 30 | 1444.6 |
| 20260507141750 | 20 | 231 | 1.6 | 9.7 | 0.00 | 0.00 | 0.00 | 30 | 1444.1 |
| 20260507141550 | 20 | 198 | 1.6 | 9.7 | 0.00 | 0.00 | 0.00 | 29 | 1444.2 |
| 20260507141350 | 20 | 195 | 1.6 | 9.7 | 0.00 | 0.00 | 0.00 | 28 | 1444.3 |
| 20260507141150 | 20 | 178 | 1.6 | 9.7 | 0.00 | 0.00 | 0.00 | 28 | 1444.3 |
| 20260507140950 | 20 | 195 | 1.6 | 9.7 | 0.00 | 0.00 | 0.00 | 28 | 1444.3 |
| 20260507140750 | 20 | 178 | 1.6 | 6.4 | 0.00 | 0.00 | 0.00 | 29 | 1444.5 |
| 20260507140550 | 20 | 202 | 1.6 | 8.0 | 0.00 | 0.00 | 0.00 | 29 | 1444.7 |
| 20260507140350 | 20 | 202 | 1.6 | 8.0 | 0.00 | 0.00 | 0.00 | 30 | 1444.7 |
| 20260507140150 | 20 | 195 | 1.6 | 8.0 | 0.00 | 0.00 | 0.00 | 30 | 1444.0 |
| 20260507135950 | 20 | 201 | 1.6 | 8.0 | 0.00 | 0.00 | 0.00 | 30 | 1443.7 |
| 20260507135750 | 20 | 215 | 1.6 | 8.0 | 0.00 | 0.00 | 0.00 | 30 | 1444.2 |
| 20260507135550 | 20 | 183 | 1.6 | 6.4 | 0.00 | 0.00 | 0.00 | 30 | 1444.6 |
| 20260507135350 | 21 | 175 | 1.6 | 6.4 | 0.00 | 0.00 | 0.00 | 31 | 1444.9 |
| 20260507135150 | 21 | 191 | 1.6 | 6.4 | 0.00 | 0.00 | 0.00 | 30 | 1444.8 |
| 20260507134950 | 21 | 187 | 1.6 | 6.4 | 0.00 | 0.00 | 0.00 | 30 | 1445.0 |
| 20260507134750 | 20 | 191 | 1.6 | 6.4 | 0.00 | 0.00 | 0.00 | 31 | 1444.6 |
| 20260507134550 | 20 | 186 | 1.6 | 6.4 | 0.00 | 0.00 | 0.00 | 31 | 1444.7 |
| 20260507134350 | 21 | 206 | 1.6 | 6.4 | 0.00 | 0.00 | 0.00 | 31 | 1445.2 |
| 20260507134150 | 21 | 201 | 1.6 | 6.4 | 0.00 | 0.00 | 0.00 | 32 | 1445.2 |
| 20260507133951 | 20 | 203 | 1.6 | 6.4 | 0.00 | 0.00 | 0.00 | 32 | 1444.2 |
| 20260507133750 | 20 | 208 | 1.6 | 8.0 | 0.00 | 0.00 | 0.00 | 32 | 1443.3 |
| 20260507133550 | 20 | 203 | 1.6 | 8.0 | 0.00 | 0.00 | 0.00 | 33 | 1443.0 |
| 20260507133350 | 20 | 195 | 1.6 | 8.0 | 0.00 | 0.00 | 0.00 | 33 | 1442.7 |
| 20260507133150 | 20 | 243 | 3.2 | 9.7 | 0.00 | 0.00 | 0.00 | 33 | 1442.3 |
| 20260507132951 | 20 | 200 | 1.6 | 9.7 | 0.00 | 0.00 | 0.00 | 33 | 1442.6 |
| 20260507132750 | 20 | 201 | 3.2 | 9.7 | 0.00 | 0.00 | 0.00 | 32 | 1442.9 |
| 20260507132550 | 20 | 201 | 1.6 | 9.7 | 0.00 | 0.00 | 0.00 | 33 | 1442.7 |
| 20260507132350 | 20 | 197 | 3.2 | 9.7 | 0.00 | 0.00 | 0.00 | 33 | 1442.6 |
| 20260507132150 | 19 | 210 | 1.6 | 11.3 | 0.00 | 0.00 | 0.00 | 34 | 1442.0 |
| 20260507131950 | 19 | 178 | 1.6 | 11.3 | 0.00 | 0.00 | 0.00 | 35 | 1441.4 |
| 20260507131750 | 18 | 197 | 3.2 | 11.3 | 0.00 | 0.00 | 0.00 | 35 | 1440.6 |
| 20260507131550 | 18 | 223 | 3.2 | 11.3 | 0.00 | 0.00 | 0.00 | 35 | 1440.8 |
| 20260507131350 | 19 | 174 | 3.2 | 11.3 | 0.00 | 0.00 | 0.00 | 34 | 1441.2 |
| 20260507131150 | 19 | 208 | 3.2 | 8.0 | 0.00 | 0.00 | 0.00 | 35 | 1441.4 |
| 20260507130950 | 19 | 203 | 3.2 | 8.0 | 0.00 | 0.00 | 0.00 | 35 | 1441.0 |
| 20260507130750 | 18 | 168 | 3.2 | 6.4 | 0.00 | 0.00 | 0.00 | 35 | 1440.9 |
| 20260507130550 | 18 | 209 | 3.2 | 8.0 | 0.00 | 0.00 | 0.00 | 35 | 1440.2 |
| 20260507130350 | 18 | 204 | 3.2 | 12.9 | 0.00 | 0.00 | 0.00 | 35 | 1439.6 |
| 20260507130150 | 18 | 214 | 1.6 | 12.9 | 0.00 | 0.00 | 0.00 | 37 | 1438.9 |
| 20260507125950 | 17 | 187 | 3.2 | 12.9 | 0.00 | 0.00 | 0.00 | 37 | 1438.1 |
| 20260507125750 | 17 | 215 | 3.2 | 12.9 | 0.00 | 0.00 | 0.00 | 37 | 1437.3 |
| 20260507125550 | 17 | 196 | 3.2 | 12.9 | 0.00 | 0.00 | 0.00 | 37 | 1437.1 |
| 20260507125350 | 17 | 186 | 3.2 | 9.7 | 0.00 | 0.00 | 0.00 | 37 | 1437.0 |
| 20260507125150 | 17 | 182 | 1.6 | 9.7 | 0.00 | 0.00 | 0.00 | 39 | 1436.0 |
| 20260507124951 | 16 | 195 | 4.8 | 9.7 | 0.00 | 0.00 | 0.00 | 38 | 1435.5 |
| 20260507124750 | 17 | 199 | 3.2 | 9.7 | 0.00 | 0.00 | 0.00 | 37 | 1435.6 |
| 20260507124550 | 16 | 204 | 3.2 | 9.7 | 0.00 | 0.00 | 0.00 | 38 | 1435.2 |
| 20260507124350 | 16 | 190 | 3.2 | 11.3 | 0.00 | 0.00 | 0.00 | 38 | 1435.1 |
| 20260507124150 | 16 | 221 | 3.2 | 11.3 | 0.00 | 0.00 | 0.00 | 37 | 1434.6 |
| 20260507123950 | 16 | 227 | 3.2 | 11.3 | 0.00 | 0.00 | 0.00 | 38 | 1434.7 |
| 20260507123750 | 16 | 205 | 1.6 | 11.3 | 0.00 | 0.00 | 0.00 | 37 | 1434.1 |
| 20260507123550 | 16 | 225 | 4.8 | 11.3 | 0.00 | 0.00 | 0.00 | 37 | 1433.7 |
| 20260507123350 | 16 | 193 | 3.2 | 11.3 | 0.00 | 0.00 | 0.00 | 38 | 1434.0 |
| 20260507123150 | 16 | 209 | 3.2 | 11.3 | 0.00 | 0.00 | 0.00 | 38 | 1434.1 |
| 20260507122950 | 16 | 197 | 3.2 | 9.7 | 0.00 | 0.00 | 0.00 | 39 | 1434.1 |
| 20260507122750 | 16 | 209 | 1.6 | 9.7 | 0.00 | 0.00 | 0.00 | 40 | 1433.7 |
| 20260507122550 | 16 | 206 | 3.2 | 9.7 | 0.00 | 0.00 | 0.00 | 39 | 1433.4 |
| 20260507122350 | 16 | 179 | 1.6 | 9.7 | 0.00 | 0.00 | 0.00 | 39 | 1433.2 |
| 20260507122150 | 15 | 220 | 3.2 | 9.7 | 0.00 | 0.00 | 0.00 | 39 | 1432.8 |
| 20260507121950 | 15 | 180 | 3.2 | 11.3 | 0.00 | 0.00 | 0.00 | 40 | 1432.5 |
| 20260507121750 | 15 | 209 | 3.2 | 11.3 | 0.00 | 0.00 | 0.00 | 40 | 1432.5 |
| 20260507121550 | 15 | 207 | 1.6 | 11.3 | 0.00 | 0.00 | 0.00 | 40 | 1432.2 |
| 20260507121350 | 15 | 204 | 3.2 | 11.3 | 0.00 | 0.00 | 0.00 | 41 | 1432.1 |
| 20260507121151 | 15 | 192 | 3.2 | 9.7 | 0.00 | 0.00 | 0.00 | 42 | 1432.0 |
| 20260507120950 | 15 | 198 | 3.2 | 12.9 | 0.00 | 0.00 | 0.00 | 42 | 1431.5 |
| 20260507120750 | 15 | 214 | 3.2 | 12.9 | 0.00 | 0.00 | 0.00 | 41 | 1431.5 |
| 20260507120550 | 15 | 226 | 4.8 | 12.9 | 0.00 | 0.00 | 0.00 | 42 | 1431.5 |
| 20260507120350 | 15 | 225 | 3.2 | 12.9 | 0.00 | 0.00 | 0.00 | 43 | 1431.9 |
| 20260507120150 | 15 | 212 | 3.2 | 11.3 | 0.00 | 0.00 | 0.00 | 44 | 1431.9 |
| 20260507115950 | 15 | 215 | 4.8 | 11.3 | 0.00 | 0.00 | 0.00 | 42 | 1432.2 |
| 20260507115750 | 15 | 205 | 1.6 | 9.7 | 0.00 | 0.00 | 0.00 | 45 | 1432.8 |
| 20260507115550 | 15 | 188 | 1.6 | 9.7 | 0.00 | 0.00 | 0.00 | 46 | 1432.3 |
| 20260507115350 | 15 | 206 | 3.2 | 9.7 | 0.00 | 0.00 | 0.00 | 45 | 1431.7 |
| 20260507115150 | 15 | 210 | 3.2 | 9.7 | 0.00 | 0.00 | 0.00 | 45 | 1431.4 |
| 20260507114950 | 15 | 210 | 3.2 | 9.7 | 0.00 | 0.00 | 0.00 | 44 | 1431.7 |
| 20260507114946 | 15 | 210 | 3.2 | 9.7 | 0.00 | 0.00 | 0.00 | 44 | 1431.7 |
| 20260507114750 | 15 | 188 | 1.6 | 9.7 | 0.00 | 0.00 | 0.00 | 45 | 1431.6 |
| 20260507114550 | 15 | 215 | 3.2 | 9.7 | 0.00 | 0.00 | 0.00 | 45 | 1431.3 |
| 20260507114350 | 15 | 204 | 3.2 | 9.7 | 0.00 | 0.00 | 0.00 | 45 | 1431.3 |
| 20260507114150 | 15 | 231 | 3.2 | 9.7 | 0.00 | 0.00 | 0.00 | 45 | 1431.7 |
| 20260507113950 | 15 | 217 | 1.6 | 9.7 | 0.00 | 0.00 | 0.00 | 46 | 1432.0 |
| 20260507113750 | 15 | 232 | 1.6 | 8.0 | 0.00 | 0.00 | 0.00 | 46 | 1431.6 |
| 20260507113550 | 15 | 203 | 3.2 | 8.0 | 0.00 | 0.00 | 0.00 | 46 | 1431.5 |
| 20260507113350 | 15 | 197 | 3.2 | 11.3 | 0.00 | 0.00 | 0.00 | 45 | 1431.6 |
| 20260507113150 | 15 | 188 | 3.2 | 11.3 | 0.00 | 0.00 | 0.00 | 45 | 1431.9 |
| 20260507112950 | 15 | 223 | 3.2 | 11.3 | 0.00 | 0.00 | 0.00 | 47 | 1431.9 |
| 20260507112750 | 15 | 199 | 1.6 | 11.3 | 0.00 | 0.00 | 0.00 | 45 | 1431.7 |
| 20260507112550 | 15 | 241 | 3.2 | 11.3 | 0.00 | 0.00 | 0.00 | 46 | 1431.9 |
| 20260507112350 | 15 | 192 | 1.6 | 8.0 | 0.00 | 0.00 | 0.00 | 46 | 1431.9 |
| 20260507112150 | 15 | 185 | 1.6 | 8.0 | 0.00 | 0.00 | 0.00 | 45 | 1431.9 |
| 20260507111950 | 15 | 214 | 3.2 | 8.0 | 0.00 | 0.00 | 0.00 | 44 | 1431.9 |
| 20260507111750 | 15 | 222 | 3.2 | 9.7 | 0.00 | 0.00 | 0.00 | 45 | 1431.7 |
| 20260507111550 | 15 | 184 | 1.6 | 9.7 | 0.00 | 0.00 | 0.00 | 44 | 1431.3 |
| 20260507111350 | 15 | 229 | 3.2 | 9.7 | 0.00 | 0.00 | 0.00 | 44 | 1431.0 |
| 20260507111150 | 15 | 196 | 3.2 | 9.7 | 0.00 | 0.00 | 0.00 | 43 | 1431.0 |
| 20260507110950 | 15 | 204 | 3.2 | 9.7 | 0.00 | 0.00 | 0.00 | 43 | 1431.1 |
| 20260507110750 | 15 | 214 | 3.2 | 9.7 | 0.00 | 0.00 | 0.00 | 44 | 1431.0 |
| 20260507110550 | 15 | 222 | 1.6 | 8.0 | 0.00 | 0.00 | 0.00 | 44 | 1430.9 |
| 20260507110350 | 15 | 216 | 3.2 | 8.0 | 0.00 | 0.00 | 0.00 | 45 | 1430.4 |
| 20260507110150 | 14 | 225 | 3.2 | 8.0 | 0.00 | 0.00 | 0.00 | 44 | 1430.2 |
| 20260507105950 | 14 | 201 | 3.2 | 8.0 | 0.00 | 0.00 | 0.00 | 45 | 1430.3 |
| 20260507105750 | 15 | 207 | 3.2 | 8.0 | 0.00 | 0.00 | 0.00 | 45 | 1430.8 |
| 20260507105550 | 15 | 160 | 1.6 | 9.7 | 0.00 | 0.00 | 0.00 | 45 | 1431.3 |
| 20260507105350 | 15 | 231 | 3.2 | 9.7 | 0.00 | 0.00 | 0.00 | 44 | 1431.7 |
| 20260507105150 | 15 | 195 | 3.2 | 9.7 | 0.00 | 0.00 | 0.00 | 43 | 1432.8 |
| 20260507104950 | 16 | 175 | 1.6 | 9.7 | 0.00 | 0.00 | 0.00 | 44 | 1433.0 |
| 20260507104750 | 16 | 226 | 3.2 | 9.7 | 0.00 | 0.00 | 0.00 | 43 | 1433.6 |
| 20260507104550 | 16 | 199 | 1.6 | 9.7 | 0.00 | 0.00 | 0.00 | 43 | 1434.5 |
| 20260507104350 | 16 | 221 | 1.6 | 9.7 | 0.00 | 0.00 | 0.00 | 44 | 1434.6 |
| 20260507104150 | 16 | 198 | 3.2 | 9.7 | 0.00 | 0.00 | 0.00 | 43 | 1434.6 |
| 20260507103950 | 16 | 176 | 1.6 | 9.7 | 0.00 | 0.00 | 0.00 | 45 | 1434.8 |
| 20260507103750 | 16 | 224 | 1.6 | 9.7 | 0.00 | 0.00 | 0.00 | 46 | 1434.0 |
| 20260507103550 | 16 | 227 | 3.2 | 9.7 | 0.00 | 0.00 | 0.00 | 46 | 1433.0 |
| 20260507103350 | 15 | 189 | 1.6 | 9.7 | 0.00 | 0.00 | 0.00 | 48 | 1432.4 |
| 20260507103150 | 15 | 205 | 1.6 | 9.7 | 0.00 | 0.00 | 0.00 | 48 | 1431.1 |
| 20260507102950 | 14 | 228 | 3.2 | 9.7 | 0.00 | 0.00 | 0.00 | 47 | 1430.1 |
| 20260507102750 | 14 | 209 | 3.2 | 9.7 | 0.00 | 0.00 | 0.00 | 49 | 1429.5 |
| 20260507102550 | 14 | 217 | 3.2 | 9.7 | 0.00 | 0.00 | 0.00 | 48 | 1429.3 |
| 20260507102350 | 14 | 201 | 3.2 | 9.7 | 0.00 | 0.00 | 0.00 | 48 | 1429.6 |
| 20260507102150 | 14 | 191 | 3.2 | 6.4 | 0.00 | 0.00 | 0.00 | 48 | 1429.8 |
| 20260507101950 | 14 | 202 | 3.2 | 6.4 | 0.00 | 0.00 | 0.00 | 49 | 1430.0 |
| 20260507101550 | 14 | 180 | 1.6 | 8.0 | 0.00 | 0.00 | 0.00 | 49 | 1429.9 |
| 20260507101350 | 14 | 219 | 1.6 | 8.0 | 0.00 | 0.00 | 0.00 | 48 | 1429.9 |
| 20260507101150 | 14 | 167 | 1.6 | 8.0 | 0.00 | 0.00 | 0.00 | 48 | 1430.3 |
| 20260507100950 | 14 | 197 | 1.6 | 8.0 | 0.00 | 0.00 | 0.00 | 48 | 1430.2 |
| 20260507100750 | 14 | 184 | 1.6 | 8.0 | 0.00 | 0.00 | 0.00 | 48 | 1430.1 |
| 20260507100550 | 14 | 194 | 1.6 | 8.0 | 0.00 | 0.00 | 0.00 | 49 | 1430.0 |
| 20260507100350 | 14 | 159 | 1.6 | 8.0 | 0.00 | 0.00 | 0.00 | 49 | 1429.8 |
| 20260507100150 | 14 | 192 | 3.2 | 8.0 | 0.00 | 0.00 | 0.00 | 49 | 1430.2 |
| 20260507095950 | 15 | 186 | 1.6 | 8.0 | 0.00 | 0.00 | 0.00 | 49 | 1430.6 |
| 20260507095750 | 15 | 218 | 3.2 | 8.0 | 0.00 | 0.00 | 0.00 | 49 | 1430.9 |
| 20260507095550 | 15 | 198 | 1.6 | 8.0 | 0.00 | 0.00 | 0.00 | 48 | 1430.8 |
| 20260507095350 | 15 | 177 | 1.6 | 8.0 | 0.00 | 0.00 | 0.00 | 47 | 1430.8 |
| 20260507095150 | 15 | 200 | 3.2 | 6.4 | 0.00 | 0.00 | 0.00 | 47 | 1430.8 |
| 20260507094950 | 15 | 223 | 3.2 | 6.4 | 0.00 | 0.00 | 0.00 | 47 | 1431.1 |
| 20260507094945 | 15 | 201 | 1.6 | 6.4 | 0.00 | 0.00 | 0.00 | 48 | 1431.3 |
| 20260507094550 | 15 | 226 | 1.6 | 6.4 | 0.00 | 0.00 | 0.00 | 48 | 1430.8 |
| 20260507094350 | 15 | 196 | 1.6 | 6.4 | 0.00 | 0.00 | 0.00 | 49 | 1430.6 |
| 20260507094150 | 14 | 194 | 1.6 | 6.4 | 0.00 | 0.00 | 0.00 | 49 | 1430.0 |
| 20260507093950 | 14 | 201 | 1.6 | 6.4 | 0.00 | 0.00 | 0.00 | 48 | 1429.3 |
| 20260507093750 | 14 | 197 | 1.6 | 6.4 | 0.00 | 0.00 | 0.00 | 47 | 1429.2 |
| 20260507093550 | 14 | 200 | 1.6 | 6.4 | 0.00 | 0.00 | 0.00 | 47 | 1429.1 |
| 20260507093350 | 14 | 161 | 1.6 | 4.8 | 0.00 | 0.00 | 0.00 | 47 | 1429.1 |
| 20260507093150 | 13 | 166 | 1.6 | 8.0 | 0.00 | 0.00 | 0.00 | 48 | 1428.8 |
| 20260507092950 | 13 | 169 | 1.6 | 8.0 | 0.00 | 0.00 | 0.00 | 48 | 1428.6 |
| 20260507092751 | 13 | 178 | 1.6 | 8.0 | 0.00 | 0.00 | 0.00 | 48 | 1428.5 |
| 20260507092550 | 13 | 184 | 1.6 | 8.0 | 0.00 | 0.00 | 0.00 | 48 | 1428.3 |
| 20260507092350 | 13 | 226 | 3.2 | 8.0 | 0.00 | 0.00 | 0.00 | 48 | 1428.5 |
| 20260507092150 | 13 | 171 | 1.6 | 4.8 | 0.00 | 0.00 | 0.00 | 48 | 1428.9 |
| 20260507091950 | 13 | 168 | 1.6 | 4.8 | 0.00 | 0.00 | 0.00 | 48 | 1429.0 |
| 20260507091750 | 14 | 186 | 1.6 | 4.8 | 0.00 | 0.00 | 0.00 | 48 | 1429.1 |
| 20260507091550 | 14 | 183 | 1.6 | 4.8 | 0.00 | 0.00 | 0.00 | 48 | 1429.1 |
| 20260507091350 | 14 | 178 | 1.6 | 4.8 | 0.00 | 0.00 | 0.00 | 47 | 1429.4 |
| 20260507091150 | 14 | 181 | 1.6 | 4.8 | 0.00 | 0.00 | 0.00 | 48 | 1429.5 |
| 20260507090950 | 14 | 188 | 1.6 | 4.8 | 0.00 | 0.00 | 0.00 | 48 | 1429.5 |
| 20260507090750 | 14 | 191 | 1.6 | 4.8 | 0.00 | 0.00 | 0.00 | 48 | 1429.5 |
| 20260507090550 | 14 | 161 | 1.6 | 6.4 | 0.00 | 0.00 | 0.00 | 48 | 1429.4 |
| 20260507090350 | 14 | 177 | 1.6 | 6.4 | 0.00 | 0.00 | 0.00 | 48 | 1429.0 |
| 20260507090150 | 13 | 178 | 1.6 | 6.4 | 0.00 | 0.00 | 0.00 | 50 | 1428.5 |
| 20260507085950 | 13 | 169 | 0.0 | 6.4 | 0.00 | 0.00 | 0.00 | 51 | 1427.8 |
| 20260507085750 | 13 | 198 | 1.6 | 6.4 | 0.00 | 0.00 | 0.00 | 50 | 1427.4 |
| 20260507085550 | 13 | 189 | 1.6 | 4.8 | 0.00 | 0.00 | 0.00 | 51 | 1427.1 |
| 20260507085350 | 13 | 200 | 1.6 | 4.8 | 0.00 | 0.00 | 0.00 | 50 | 1426.7 |
| 20260507085150 | 13 | 191 | 0.0 | 4.8 | 0.00 | 0.00 | 0.00 | 50 | 1426.4 |
| 20260507084950 | 12 | 242 | 1.6 | 4.8 | 0.00 | 0.00 | 0.00 | 50 | 1426.1 |
| 20260507084750 | 12 | 231 | 1.6 | 4.8 | 0.00 | 0.00 | 0.00 | 48 | 1425.8 |
| 20260507084550 | 12 | 252 | 1.6 | 4.8 | 0.00 | 0.00 | 0.00 | 48 | 1425.7 |
| 20260507084350 | 12 | 235 | 1.6 | 3.2 | 0.00 | 0.00 | 0.00 | 48 | 1425.5 |
| 20260507084150 | 12 | 224 | 1.6 | 3.2 | 0.00 | 0.00 | 0.00 | 47 | 1425.6 |
| 20260507083950 | 12 | 205 | 1.6 | 3.2 | 0.00 | 0.00 | 0.00 | 49 | 1425.6 |
| 20260507083750 | 12 | 206 | 1.6 | 3.2 | 0.00 | 0.00 | 0.00 | 50 | 1425.5 |
| 20260507083550 | 12 | 187 | 1.6 | 3.2 | 0.00 | 0.00 | 0.00 | 51 | 1425.5 |
| 20260507083350 | 12 | 226 | 0.0 | 3.2 | 0.00 | 0.00 | 0.00 | 53 | 1425.4 |
| 20260507083150 | 12 | 224 | 1.6 | 4.8 | 0.00 | 0.00 | 0.00 | 53 | 1425.1 |
| 20260507082950 | 12 | 223 | 1.6 | 4.8 | 0.00 | 0.00 | 0.00 | 53 | 1424.8 |
| 20260507082750 | 12 | 243 | 1.6 | 4.8 | 0.00 | 0.00 | 0.00 | 54 | 1424.9 |
| 20260507082550 | 12 | 206 | 1.6 | 4.8 | 0.00 | 0.00 | 0.00 | 55 | 1424.8 |
| 20260507082351 | 12 | 230 | 1.6 | 4.8 | 0.00 | 0.00 | 0.00 | 56 | 1424.8 |
| 20260507082150 | 12 | 231 | 0.0 | 3.2 | 0.00 | 0.00 | 0.00 | 57 | 1424.6 |
| 20260507081950 | 12 | 218 | 0.0 | 3.2 | 0.00 | 0.00 | 0.00 | 56 | 1424.2 |
| 20260507081750 | 12 | 234 | 1.6 | 3.2 | 0.00 | 0.00 | 0.00 | 57 | 1424.1 |
| 20260507081550 | 12 | 221 | 1.6 | 3.2 | 0.00 | 0.00 | 0.00 | 58 | 1424.1 |
| 20260507081350 | 12 | 196 | 0.0 | 3.2 | 0.00 | 0.00 | 0.00 | 59 | 1424.1 |
| 20260507081150 | 12 | 195 | 0.0 | 3.2 | 0.00 | 0.00 | 0.00 | 60 | 1423.9 |
| 20260507080950 | 11 | 183 | 1.6 | 4.8 | 0.00 | 0.00 | 0.00 | 61 | 1423.8 |
| 20260507080750 | 11 | 226 | 0.0 | 4.8 | 0.00 | 0.00 | 0.00 | 61 | 1423.6 |
| 20260507080550 | 11 | 204 | 0.0 | 4.8 | 0.00 | 0.00 | 0.00 | 62 | 1423.3 |
| 20260507080350 | 11 | 221 | 1.6 | 4.8 | 0.00 | 0.00 | 0.00 | 62 | 1423.1 |
| 20260507080150 | 11 | 239 | 1.6 | 4.8 | 0.00 | 0.00 | 0.00 | 63 | 1423.1 |
| 20260507075950 | 11 | 208 | 0.0 | 4.8 | 0.00 | 0.00 | 0.00 | 64 | 1423.3 |
| 20260507075750 | 11 | 204 | 0.0 | 3.2 | 0.00 | 0.00 | 0.00 | 64 | 1422.9 |
| 20260507075550 | 11 | 231 | 0.0 | 3.2 | 0.00 | 0.00 | 0.00 | 65 | 1422.5 |
| 20260507075350 | 11 | 223 | 1.6 | 3.2 | 0.00 | 0.00 | 0.00 | 65 | 1422.2 |
| 20260507075150 | 11 | 185 | 0.0 | 3.2 | 0.00 | 0.00 | 0.00 | 66 | 1421.8 |
| 20260507074950 | 11 | 229 | 1.6 | 3.2 | 0.00 | 0.00 | 0.00 | 66 | 1421.5 |
| 20260507074750 | 11 | 209 | 1.6 | 4.8 | 0.00 | 0.00 | 0.00 | 67 | 1421.3 |
| 20260507074550 | 11 | 230 | 1.6 | 4.8 | 0.00 | 0.00 | 0.00 | 68 | 1421.3 |
| 20260507074350 | 11 | 232 | 1.6 | 4.8 | 0.00 | 0.00 | 0.00 | 69 | 1421.2 |
| 20260507074150 | 10 | 255 | 0.0 | 4.8 | 0.00 | 0.00 | 0.00 | 69 | 1420.9 |
| 20260507073950 | 10 | 227 | 1.6 | 4.8 | 0.00 | 0.00 | 0.00 | 69 | 1420.8 |
| 20260507073750 | 10 | 252 | 1.6 | 4.8 | 0.00 | 0.00 | 0.00 | 70 | 1420.7 |
| 20260507073550 | 10 | 243 | 1.6 | 4.8 | 0.00 | 0.00 | 0.00 | 71 | 1420.6 |
| 20260507073350 | 10 | 235 | 1.6 | 3.2 | 0.00 | 0.00 | 0.00 | 71 | 1420.5 |
| 20260507073150 | 10 | 264 | 1.6 | 3.2 | 0.00 | 0.00 | 0.00 | 72 | 1420.5 |
| 20260507072950 | 10 | 239 | 0.0 | 3.2 | 0.00 | 0.00 | 0.00 | 72 | 1420.4 |
| 20260507072750 | 10 | 254 | 0.0 | 3.2 | 0.00 | 0.00 | 0.00 | 72 | 1420.1 |
| 20260507072550 | 10 | 239 | 1.6 | 3.2 | 0.00 | 0.00 | 0.00 | 73 | 1420.0 |
| 20260507072350 | 10 | 219 | 0.0 | 3.2 | 0.00 | 0.00 | 0.00 | 73 | 1419.6 |
| 20260507072150 | 10 | 202 | 0.0 | 3.2 | 0.00 | 0.00 | 0.00 | 73 | 1419.4 |
| 20260507071950 | 10 | 218 | 0.0 | 3.2 | 0.00 | 0.00 | 0.00 | 73 | 1419.4 |
| 20260507071750 | 10 | 252 | 0.0 | 1.6 | 0.00 | 0.00 | 0.00 | 73 | 1419.0 |
| 20260507071550 | 10 | 258 | 0.0 | 1.6 | 0.00 | 0.00 | 0.00 | 74 | 1418.7 |
| 20260507071350 | 9 | 214 | 1.6 | 3.2 | 0.00 | 0.00 | 0.00 | 74 | 1418.5 |
| 20260507071150 | 9 | 212 | 0.0 | 3.2 | 0.00 | 0.00 | 0.00 | 74 | 1418.4 |
| 20260507070950 | 9 | 238 | 0.0 | 3.2 | 0.00 | 0.00 | 0.00 | 74 | 1418.2 |
| 20260507070750 | 9 | 209 | 0.0 | 3.2 | 0.00 | 0.00 | 0.00 | 74 | 1418.0 |
| 20260507070550 | 9 | 233 | 0.0 | 3.2 | 0.00 | 0.00 | 0.00 | 74 | 1417.7 |
| 20260507070350 | 9 | 214 | 1.6 | 3.2 | 0.00 | 0.00 | 0.00 | 74 | 1418.0 |
| 20260507070150 | 10 | 274 | 0.0 | 3.2 | 0.00 | 0.00 | 0.00 | 74 | 1418.6 |
| 20260507065950 | 10 | 238 | 0.0 | 3.2 | 0.00 | 0.00 | 0.00 | 74 | 1418.9 |
| 20260507065750 | 10 | 207 | 0.0 | 3.2 | 0.00 | 0.00 | 0.00 | 74 | 1419.0 |
| 20260507065550 | 10 | 218 | 0.0 | 3.2 | 0.00 | 0.00 | 0.00 | 74 | 1418.9 |
| 20260507065350 | 10 | 224 | 0.0 | 3.2 | 0.00 | 0.00 | 0.00 | 75 | 1418.8 |
| 20260507065150 | 10 | 277 | 0.0 | 3.2 | 0.00 | 0.00 | 0.00 | 75 | 1418.5 |
| 20260507064950 | 9 | 257 | 1.6 | 3.2 | 0.00 | 0.00 | 0.00 | 75 | 1418.2 |
| 20260507064750 | 9 | 249 | 0.0 | 3.2 | 0.00 | 0.00 | 0.00 | 75 | 1418.0 |
| 20260507064551 | 9 | 232 | 0.0 | 3.2 | 0.00 | 0.00 | 0.00 | 75 | 1417.6 |
| 20260507064351 | 9 | 235 | 0.0 | 3.2 | 0.00 | 0.00 | 0.00 | 75 | 1417.3 |
| 20260507064150 | 8 | 226 | 1.6 | 3.2 | 0.00 | 0.00 | 0.00 | 75 | 1417.2 |
| 20260507063950 | 9 | 229 | 0.0 | 3.2 | 0.00 | 0.00 | 0.00 | 76 | 1417.4 |
| 20260507063750 | 9 | 232 | 0.0 | 3.2 | 0.00 | 0.00 | 0.00 | 76 | 1417.3 |
| 20260507063550 | 8 | 228 | 0.0 | 3.2 | 0.00 | 0.00 | 0.00 | 76 | 1417.0 |
| 20260507063350 | 8 | 190 | 1.6 | 3.2 | 0.00 | 0.00 | 0.00 | 76 | 1416.8 |
| 20260507063150 | 8 | 263 | 0.0 | 3.2 | 0.00 | 0.00 | 0.00 | 77 | 1417.0 |
| 20260507062950 | 8 | 248 | 0.0 | 1.6 | 0.00 | 0.00 | 0.00 | 77 | 1416.8 |
| 20260507062750 | 8 | 214 | 0.0 | 1.6 | 0.00 | 0.00 | 0.00 | 78 | 1416.6 |
| 20260507062550 | 8 | 175 | 0.0 | 1.6 | 0.00 | 0.00 | 0.00 | 78 | 1416.6 |
| 20260507062350 | 8 | 211 | 0.0 | 1.6 | 0.00 | 0.00 | 0.00 | 78 | 1416.5 |
| 20260507062150 | 8 | 270 | 0.0 | 1.6 | 0.00 | 0.00 | 0.00 | 78 | 1416.4 |
| 20260507061950 | 8 | 246 | 0.0 | 1.6 | 0.00 | 0.00 | 0.00 | 78 | 1416.3 |
| 20260507061750 | 8 | 232 | 0.0 | 1.6 | 0.00 | 0.00 | 0.00 | 79 | 1416.1 |
| 20260507061550 | 8 | 259 | 0.0 | 1.6 | 0.00 | 0.00 | 0.00 | 79 | 1415.8 |
| 20260507061350 | 8 | 217 | 0.0 | 1.6 | 0.00 | 0.00 | 0.00 | 79 | 1415.5 |
| 20260507061150 | 8 | 135 | 0.0 | 1.6 | 0.00 | 0.00 | 0.00 | 79 | 1415.3 |
| 20260507060950 | 8 | 203 | 0.0 | 1.6 | 0.00 | 0.00 | 0.00 | 80 | 1415.0 |
| 20260507060750 | 7 | 2 | 0.0 | 1.6 | 0.00 | 0.00 | 0.00 | 80 | 1414.4 |
| 20260507060550 | 7 | 242 | 0.0 | 3.2 | 0.00 | 0.00 | 0.00 | 80 | 1414.2 |
| 20260507060350 | 7 | 176 | 0.0 | 3.2 | 0.00 | 0.00 | 0.00 | 80 | 1414.3 |
| 20260507060150 | 7 | 68 | 0.0 | 3.2 | 0.00 | 0.00 | 0.00 | 80 | 1414.3 |
| 20260507055950 | 7 | 242 | 1.6 | 3.2 | 0.00 | 0.00 | 0.00 | 80 | 1414.0 |
| 20260507055750 | 7 | 177 | 0.0 | 3.2 | 0.00 | 0.00 | 0.00 | 81 | 1414.0 |
| 20260507055550 | 7 | 174 | 0.0 | 3.2 | 0.00 | 0.00 | 0.00 | 81 | 1413.7 |
| 20260507055350 | 7 | 301 | 0.0 | 3.2 | 0.00 | 0.00 | 0.00 | 81 | 1413.5 |
| 20260507055150 | 7 | 295 | 1.6 | 3.2 | 0.00 | 0.00 | 0.00 | 81 | 1413.2 |
| 20260507054950 | 7 | 162 | 0.0 | 3.2 | 0.00 | 0.00 | 0.00 | 81 | 1413.2 |
| 20260507054750 | 7 | 234 | 0.0 | 3.2 | 0.00 | 0.00 | 0.00 | 82 | 1413.0 |
| 20260507054550 | 7 | 198 | 0.0 | 3.2 | 0.00 | 0.00 | 0.00 | 82 | 1412.9 |
| 20260507054350 | 7 | 266 | 1.6 | 3.2 | 0.00 | 0.00 | 0.00 | 82 | 1412.6 |
| 20260507054150 | 7 | 218 | 1.6 | 3.2 | 0.00 | 0.00 | 0.00 | 83 | 1412.5 |
| 20260507053951 | 7 | 237 | 1.6 | 3.2 | 0.00 | 0.00 | 0.00 | 83 | 1412.4 |
| 20260507053750 | 7 | 252 | 1.6 | 3.2 | 0.00 | 0.00 | 0.00 | 84 | 1412.4 |
| 20260507053550 | 7 | 260 | 0.0 | 3.2 | 0.00 | 0.00 | 0.00 | 85 | 1412.5 |
| 20260507053350 | 7 | 265 | 0.0 | 3.2 | 0.00 | 0.00 | 0.00 | 85 | 1412.3 |
| 20260507052950 | 7 | 248 | 0.0 | 3.2 | 0.00 | 0.00 | 0.00 | 86 | 1412.1 |
| 20260507052750 | 6 | 263 | 0.0 | 3.2 | 0.00 | 0.00 | 0.00 | 86 | 1411.8 |
| 20260507052550 | 6 | 296 | 1.6 | 3.2 | 0.00 | 0.00 | 0.00 | 86 | 1411.5 |
| 20260507052350 | 6 | 250 | 0.0 | 1.6 | 0.00 | 0.00 | 0.00 | 87 | 1414.7 |
| 20260507052150 | 6 | 268 | 0.0 | 1.6 | 0.00 | 0.00 | 0.00 | 87 | 1411.1 |
| 20260507051950 | 6 | 226 | 0.0 | 1.6 | 0.00 | 0.00 | 0.00 | 87 | 1414.5 |
| 20260507051750 | 6 | 219 | 0.0 | 0.0 | 0.00 | 0.00 | 0.00 | 88 | 1411.2 |
| 20260507051550 | 6 | 227 | 0.0 | 0.0 | 0.00 | 0.00 | 0.00 | 88 | 1411.2 |
| 20260507051350 | 6 | 10 | 0.0 | 0.0 | 0.00 | 0.00 | 0.00 | 88 | 1410.8 |
| 20260507051150 | 6 | 193 | 0.0 | 0.0 | 0.00 | 0.00 | 0.00 | 88 | 1414.0 |
| 20260507050950 | 6 | 74 | 0.0 | 0.0 | 0.00 | 0.00 | 0.00 | 88 | 1413.9 |
| 20260507050750 | 6 | 147 | 0.0 | 0.0 | 0.00 | 0.00 | 0.00 | 88 | 1413.7 |
| 20260507050550 | 6 | 242 | 0.0 | 0.0 | 0.00 | 0.00 | 0.00 | 88 | 1413.1 |
| 20260507050350 | 6 | 163 | 0.0 | 0.0 | 0.00 | 0.00 | 0.00 | 88 | 1412.9 |
| 20260507050150 | 5 | 23 | 0.0 | 0.0 | 0.00 | 0.00 | 0.00 | 88 | 1412.6 |
| 20260507045950 | 5 | 79 | 0.0 | 0.0 | 0.00 | 0.00 | 0.00 | 88 | 1411.8 |
| 20260507045750 | 5 | 92 | 0.0 | 0.0 | 0.00 | 0.00 | 0.00 | 88 | 1411.2 |
| 20260507045550 | 5 | 90 | 0.0 | 0.0 | 0.00 | 0.00 | 0.00 | 88 | 1410.4 |
| 20260507045350 | 4 | 90 | 0.0 | 0.0 | 0.00 | 0.00 | 0.00 | 88 | 1409.0 |
| 20260507045150 | 3 | 80 | 0.0 | 0.0 | 0.00 | 0.00 | 0.00 | 88 | 1411.1 |
| 20260507044950 | 3 | 45 | 0.0 | 0.0 | 0.00 | 0.00 | 0.00 | 88 | 1410.0 |
| 20260507044750 | 2 | 86 | 0.0 | 0.0 | 0.00 | 0.00 | 0.00 | 88 | 1412.8 |
| 20260507044550 | 2 | 90 | 0.0 | 0.0 | 0.00 | 0.00 | 0.00 | 88 | 1415.8 |
| 20260507044350 | 2 | 108 | 0.0 | 0.0 | 0.00 | 0.00 | 0.00 | 88 | 1418.9 |
| 20260507044151 | 2 | 91 | 0.0 | 0.0 | 0.00 | 0.00 | 0.00 | 88 | 1425.4 |
| 20260507043950 | 2 | 130 | 0.0 | 0.0 | 0.00 | 0.00 | 0.00 | 88 | 1428.6 |
| 20260507043750 | 2 | 101 | 0.0 | 0.0 | 0.00 | 0.00 | 0.00 | 88 | 1431.6 |
| 20260507043550 | 2 | 45 | 0.0 | 0.0 | 0.00 | 0.00 | 0.00 | 88 | 1435.0 |
| 20260507043350 | 2 | 124 | 0.0 | 0.0 | 0.00 | 0.00 | 0.00 | 88 | 1434.8 |
| 20260507043150 | 2 | 200 | 0.0 | 0.0 | 0.00 | 0.00 | 0.00 | 88 | 1441.4 |
| 20260507042950 | 2 | 96 | 0.0 | 0.0 | 0.00 | 0.00 | 0.00 | 88 | 1444.5 |
| 20260507042750 | 1 | 90 | 0.0 | 0.0 | 0.00 | 0.00 | 0.00 | 88 | 1447.8 |
| 20260507042550 | 1 | 90 | 0.0 | 0.0 | 0.00 | 0.00 | 0.00 | 88 | 1447.7 |
| 20260507042350 | 1 | 90 | 0.0 | 0.0 | 0.00 | 0.00 | 0.00 | 88 | 1447.6 |
| 20260507042150 | 1 | 90 | 0.0 | 0.0 | 0.00 | 0.00 | 0.00 | 88 | 1451.0 |
| 20260507041950 | 1 | 90 | 0.0 | 0.0 | 0.00 | 0.00 | 0.00 | 88 | 1450.9 |
| 20260507041750 | 1 | 90 | 0.0 | 0.0 | 0.00 | 0.00 | 0.00 | 88 | 1454.1 |
| 20260507041550 | 1 | 90 | 0.0 | 0.0 | 0.00 | 0.00 | 0.00 | 88 | 1457.5 |
| 20260507041350 | 1 | 90 | 0.0 | 0.0 | 0.00 | 0.00 | 0.00 | 88 | 1457.3 |
| 20260507041150 | 1 | 90 | 0.0 | 0.0 | 0.00 | 0.00 | 0.00 | 87 | 1460.6 |
| 20260507040950 | 1 | 96 | 0.0 | 0.0 | 0.00 | 0.00 | 0.00 | 87 | 1460.4 |
| 20260507040750 | 1 | 93 | 0.0 | 0.0 | 0.00 | 0.00 | 0.00 | 87 | 1463.6 |
| 20260507040550 | 1 | 67 | 0.0 | 0.0 | 0.00 | 0.00 | 0.00 | 87 | 1463.6 |
| 20260507040350 | 1 | 90 | 0.0 | 0.0 | 0.00 | 0.00 | 0.00 | 87 | 1463.7 |
| 20260507040150 | 1 | 90 | 0.0 | 0.0 | 0.00 | 0.00 | 0.00 | 87 | 1463.6 |
| 20260507035950 | 1 | 91 | 0.0 | 0.0 | 0.00 | 0.00 | 0.00 | 87 | 1463.5 |
| 20260507035750 | 1 | 97 | 0.0 | 0.0 | 0.00 | 0.00 | 0.00 | 87 | 1466.7 |
| 20260507035550 | 1 | 93 | 0.0 | 0.0 | 0.00 | 0.00 | 0.00 | 87 | 1466.5 |
| 20260507035350 | 1 | 92 | 0.0 | 0.0 | 0.00 | 0.00 | 0.00 | 87 | 1469.8 |
| 20260507035150 | 1 | 90 | 0.0 | 0.0 | 0.00 | 0.00 | 0.00 | 87 | 1469.7 |
| 20260507034950 | 1 | 90 | 0.0 | 0.0 | 0.00 | 0.00 | 0.00 | 87 | 1469.6 |
| 20260507034750 | 1 | 98 | 0.0 | 0.0 | 0.00 | 0.00 | 0.00 | 87 | 1469.6 |
| 20260507034550 | 1 | 100 | 0.0 | 0.0 | 0.00 | 0.00 | 0.00 | 87 | 1469.7 |
| 20260507034350 | 1 | 95 | 0.0 | 0.0 | 0.00 | 0.00 | 0.00 | 87 | 1469.7 |
| 20260507034150 | 1 | 90 | 0.0 | 0.0 | 0.00 | 0.00 | 0.00 | 87 | 1469.6 |
| 20260507033950 | 1 | 90 | 0.0 | 0.0 | 0.00 | 0.00 | 0.00 | 87 | 1469.6 |
| 20260507033750 | 1 | 72 | 0.0 | 0.0 | 0.00 | 0.00 | 0.00 | 87 | 1469.6 |
| 20260507033550 | 1 | 96 | 0.0 | 0.0 | 0.00 | 0.00 | 0.00 | 86 | 1469.6 |
| 20260507033350 | 1 | 115 | 0.0 | 0.0 | 0.00 | 0.00 | 0.00 | 86 | 1469.6 |
| 20260507033150 | 1 | 90 | 0.0 | 0.0 | 0.00 | 0.00 | 0.00 | 86 | 1469.6 |
| 20260507032950 | 1 | 90 | 0.0 | 0.0 | 0.00 | 0.00 | 0.00 | 86 | 1469.7 |
| 20260507032750 | 1 | 91 | 0.0 | 0.0 | 0.00 | 0.00 | 0.00 | 86 | 1469.8 |
| 20260507032550 | 1 | 66 | 0.0 | 0.0 | 0.00 | 0.00 | 0.00 | 86 | 1469.9 |
| 20260507032350 | 1 | 94 | 0.0 | 0.0 | 0.00 | 0.00 | 0.00 | 86 | 1466.5 |
| 20260507032150 | 1 | 93 | 0.0 | 0.0 | 0.00 | 0.00 | 0.00 | 86 | 1466.5 |
| 20260507031950 | 1 | 96 | 0.0 | 0.0 | 0.00 | 0.00 | 0.00 | 86 | 1469.7 |
| 20260507031750 | 1 | 135 | 0.0 | 0.0 | 0.00 | 0.00 | 0.00 | 86 | 1469.6 |
| 20260507031550 | 1 | 105 | 0.0 | 0.0 | 0.00 | 0.00 | 0.00 | 86 | 1469.6 |
| 20260507031350 | 1 | 109 | 0.0 | 0.0 | 0.00 | 0.00 | 0.00 | 86 | 1472.8 |
| 20260507031150 | 1 | 136 | 0.0 | 0.0 | 0.00 | 0.00 | 0.00 | 86 | 1472.6 |
| 20260507030950 | 1 | 93 | 0.0 | 0.0 | 0.00 | 0.00 | 0.00 | 86 | 1472.6 |
| 20260507030750 | 1 | 90 | 0.0 | 0.0 | 0.00 | 0.00 | 0.00 | 85 | 1472.9 |
| 20260507030550 | 1 | 99 | 0.0 | 0.0 | 0.00 | 0.00 | 0.00 | 85 | 1469.6 |
| 20260507030350 | 1 | 99 | 0.0 | 0.0 | 0.00 | 0.00 | 0.00 | 85 | 1469.6 |
| 20260507030150 | 1 | 90 | 0.0 | 0.0 | 0.00 | 0.00 | 0.00 | 85 | 1469.8 |
| 20260507025950 | 1 | 99 | 0.0 | 0.0 | 0.00 | 0.00 | 0.00 | 85 | 1469.8 |
| 20260507025750 | 1 | 67 | 0.0 | 0.0 | 0.00 | 0.00 | 0.00 | 85 | 1470.0 |
| 20260507025550 | 1 | 110 | 0.0 | 0.0 | 0.00 | 0.00 | 0.00 | 85 | 1466.8 |
| 20260507025350 | 1 | 114 | 0.0 | 0.0 | 0.00 | 0.00 | 0.00 | 85 | 1466.8 |
| 20260507025150 | 1 | 96 | 0.0 | 1.6 | 0.00 | 0.00 | 0.00 | 85 | 1466.9 |
| 20260507024950 | 1 | 117 | 0.0 | 1.6 | 0.00 | 0.00 | 0.00 | 85 | 1466.8 |
| 20260507024750 | 1 | 106 | 0.0 | 1.6 | 0.00 | 0.00 | 0.00 | 85 | 1466.8 |
| 20260507024550 | 1 | 93 | 0.0 | 1.6 | 0.00 | 0.00 | 0.00 | 85 | 1466.9 |
| 20260507024350 | 1 | 107 | 0.0 | 1.6 | 0.00 | 0.00 | 0.00 | 85 | 1467.0 |
| 20260507024150 | 1 | 103 | 0.0 | 0.0 | 0.00 | 0.00 | 0.00 | 84 | 1463.6 |
| 20260507023950 | 1 | 88 | 0.0 | 0.0 | 0.00 | 0.00 | 0.00 | 84 | 1463.8 |
| 20260507023750 | 1 | 60 | 0.0 | 0.0 | 0.00 | 0.00 | 0.00 | 84 | 1460.6 |
| 20260507023550 | 1 | 109 | 0.0 | 1.6 | 0.00 | 0.00 | 0.00 | 84 | 1460.6 |
| 20260507023350 | 1 | 148 | 0.0 | 1.6 | 0.00 | 0.00 | 0.00 | 84 | 1463.9 |
| 20260507023150 | 1 | 197 | 0.0 | 1.6 | 0.00 | 0.00 | 0.00 | 84 | 1463.9 |
| 20260507022950 | 1 | 99 | 0.0 | 1.6 | 0.00 | 0.00 | 0.00 | 84 | 1463.8 |
| 20260507022750 | 1 | 99 | 0.0 | 1.6 | 0.00 | 0.00 | 0.00 | 84 | 1463.9 |
| 20260507022550 | 1 | 90 | 0.0 | 0.0 | 0.00 | 0.00 | 0.00 | 84 | 1463.9 |
| 20260507022350 | 1 | 93 | 0.0 | 0.0 | 0.00 | 0.00 | 0.00 | 84 | 1460.6 |
| 20260507022150 | 1 | 75 | 0.0 | 0.0 | 0.00 | 0.00 | 0.00 | 83 | 1460.8 |
| 20260507021950 | 1 | 50 | 0.0 | 0.0 | 0.00 | 0.00 | 0.00 | 83 | 1457.6 |
| 20260507021750 | 1 | 85 | 0.0 | 0.0 | 0.00 | 0.00 | 0.00 | 83 | 1454.4 |
| 20260507021550 | 1 | 52 | 0.0 | 0.0 | 0.00 | 0.00 | 0.00 | 83 | 1454.5 |
| 20260507021350 | 2 | 87 | 0.0 | 0.0 | 0.00 | 0.00 | 0.00 | 83 | 1451.3 |
| 20260507021150 | 2 | 159 | 0.0 | 0.0 | 0.00 | 0.00 | 0.00 | 83 | 1448.0 |
| 20260507020950 | 2 | 172 | 0.0 | 1.6 | 0.00 | 0.00 | 0.00 | 83 | 1448.1 |
| 20260507020750 | 2 | 126 | 0.0 | 1.6 | 0.00 | 0.00 | 0.00 | 83 | 1448.1 |
| 20260507020550 | 2 | 107 | 0.0 | 1.6 | 0.00 | 0.00 | 0.00 | 83 | 1448.2 |
| 20260507020350 | 2 | 111 | 0.0 | 1.6 | 0.00 | 0.00 | 0.00 | 83 | 1444.9 |
| 20260507020150 | 2 | 100 | 0.0 | 1.6 | 0.00 | 0.00 | 0.00 | 83 | 1445.0 |
| 20260507015950 | 2 | 126 | 0.0 | 1.6 | 0.00 | 0.00 | 0.00 | 82 | 1445.0 |
| 20260507015750 | 2 | 165 | 0.0 | 1.6 | 0.00 | 0.00 | 0.00 | 82 | 1445.0 |
| 20260507015550 | 2 | 100 | 0.0 | 1.6 | 0.00 | 0.00 | 0.00 | 82 | 1441.8 |
| 20260507015350 | 2 | 94 | 0.0 | 1.6 | 0.00 | 0.00 | 0.00 | 82 | 1438.6 |
| 20260507015150 | 2 | 108 | 0.0 | 1.6 | 0.00 | 0.00 | 0.00 | 82 | 1438.5 |
| 20260507014950 | 2 | 189 | 0.0 | 0.0 | 0.00 | 0.00 | 0.00 | 82 | 1441.7 |
| 20260507014750 | 2 | 242 | 0.0 | 0.0 | 0.00 | 0.00 | 0.00 | 82 | 1441.8 |
| 20260507014550 | 2 | 106 | 0.0 | 0.0 | 0.00 | 0.00 | 0.00 | 81 | 1438.5 |
| 20260507014350 | 2 | 172 | 0.0 | 1.6 | 0.00 | 0.00 | 0.00 | 81 | 1441.8 |
| 20260507014150 | 2 | 198 | 0.0 | 1.6 | 0.00 | 0.00 | 0.00 | 81 | 1441.9 |
| 20260507013950 | 2 | 94 | 0.0 | 1.6 | 0.00 | 0.00 | 0.00 | 81 | 1438.5 |
| 20260507013750 | 2 | 110 | 0.0 | 1.6 | 0.00 | 0.00 | 0.00 | 81 | 1438.6 |
| 20260507013550 | 2 | 103 | 0.0 | 1.6 | 0.00 | 0.00 | 0.00 | 81 | 1435.4 |
| 20260507013350 | 2 | 110 | 0.0 | 1.6 | 0.00 | 0.00 | 0.00 | 80 | 1432.1 |
| 20260507013150 | 2 | 109 | 0.0 | 1.6 | 0.00 | 0.00 | 0.00 | 80 | 1432.3 |
| 20260507012950 | 2 | 105 | 0.0 | 1.6 | 0.00 | 0.00 | 0.00 | 80 | 1432.3 |
| 20260507012750 | 2 | 103 | 0.0 | 0.0 | 0.00 | 0.00 | 0.00 | 80 | 1432.2 |
| 20260507012550 | 2 | 108 | 0.0 | 0.0 | 0.00 | 0.00 | 0.00 | 80 | 1432.2 |
| 20260507012350 | 2 | 103 | 0.0 | 0.0 | 0.00 | 0.00 | 0.00 | 79 | 1432.2 |
| 20260507012150 | 2 | 127 | 0.0 | 0.0 | 0.00 | 0.00 | 0.00 | 79 | 1435.4 |
| 20260507011950 | 2 | 102 | 0.0 | 0.0 | 0.00 | 0.00 | 0.00 | 79 | 1432.1 |
| 20260507011750 | 2 | 97 | 0.0 | 0.0 | 0.00 | 0.00 | 0.00 | 79 | 1432.2 |
| 20260507011550 | 2 | 100 | 0.0 | 0.0 | 0.00 | 0.00 | 0.00 | 79 | 1432.2 |
| 20260507011350 | 2 | 115 | 0.0 | 1.6 | 0.00 | 0.00 | 0.00 | 78 | 1432.3 |
| 20260507011150 | 2 | 94 | 0.0 | 1.6 | 0.00 | 0.00 | 0.00 | 78 | 1429.0 |
| 20260507010950 | 2 | 102 | 0.0 | 1.6 | 0.00 | 0.00 | 0.00 | 78 | 1425.8 |
| 20260507010750 | 2 | 101 | 0.0 | 1.6 | 0.00 | 0.00 | 0.00 | 78 | 1425.9 |
| 20260507010550 | 2 | 94 | 0.0 | 1.6 | 0.00 | 0.00 | 0.00 | 77 | 1422.7 |
| 20260507010350 | 2 | 118 | 0.0 | 1.6 | 0.00 | 0.00 | 0.00 | 77 | 1422.9 |
| 20260507010150 | 2 | 93 | 0.0 | 1.6 | 0.00 | 0.00 | 0.00 | 77 | 1422.8 |
| 20260507005950 | 2 | 49 | 0.0 | 1.6 | 0.00 | 0.00 | 0.00 | 77 | 1422.6 |
| 20260507005750 | 2 | 54 | 0.0 | 1.6 | 0.00 | 0.00 | 0.00 | 76 | 1422.8 |
| 20260507005550 | 2 | 92 | 0.0 | 0.0 | 0.00 | 0.00 | 0.00 | 76 | 1422.9 |
| 20260507005350 | 2 | 93 | 0.0 | 0.0 | 0.00 | 0.00 | 0.00 | 76 | 1422.9 |
| 20260507005150 | 2 | 91 | 0.0 | 0.0 | 0.00 | 0.00 | 0.00 | 76 | 1422.9 |
| 20260507004950 | 2 | 105 | 0.0 | 0.0 | 0.00 | 0.00 | 0.00 | 76 | 1419.5 |
| 20260507004750 | 2 | 79 | 0.0 | 0.0 | 0.00 | 0.00 | 0.00 | 75 | 1419.6 |
| 20260507004350 | 3 | 76 | 0.0 | 1.6 | 0.00 | 0.00 | 0.00 | 75 | 1416.5 |
| 20260507004150 | 3 | 90 | 0.0 | 1.6 | 0.00 | 0.00 | 0.00 | 75 | 1416.8 |
| 20260507003950 | 3 | 91 | 0.0 | 1.6 | 0.00 | 0.00 | 0.00 | 75 | 1413.7 |
| 20260507003750 | 3 | 97 | 0.0 | 1.6 | 0.00 | 0.00 | 0.00 | 75 | 1413.8 |
| 20260507003550 | 3 | 94 | 0.0 | 1.6 | 0.00 | 0.00 | 0.00 | 75 | 1413.9 |
| 20260507003350 | 3 | 97 | 0.0 | 1.6 | 0.00 | 0.00 | 0.00 | 75 | 1414.1 |
| 20260507003150 | 3 | 94 | 0.0 | 1.6 | 0.00 | 0.00 | 0.00 | 74 | 1414.2 |
| 20260507002950 | 3 | 90 | 0.0 | 1.6 | 0.00 | 0.00 | 0.00 | 74 | 1414.4 |
| 20260507002750 | 3 | 95 | 0.0 | 1.6 | 0.00 | 0.00 | 0.00 | 74 | 1411.1 |
| 20260507002550 | 3 | 91 | 0.0 | 1.6 | 0.00 | 0.00 | 0.00 | 74 | 1411.2 |
| 20260507002350 | 3 | 97 | 0.0 | 0.0 | 0.00 | 0.00 | 0.00 | 74 | 1411.3 |
| 20260507002150 | 3 | 92 | 0.0 | 0.0 | 0.00 | 0.00 | 0.00 | 74 | 1411.4 |
| 20260507001950 | 3 | 88 | 0.0 | 0.0 | 0.00 | 0.00 | 0.00 | 74 | 1411.7 |
| 20260507001750 | 3 | 76 | 0.0 | 1.6 | 0.00 | 0.00 | 0.00 | 73 | 1412.2 |
| 20260507001550 | 4 | 90 | 0.0 | 1.6 | 0.00 | 0.00 | 0.00 | 73 | 1412.6 |
| 20260507001350 | 4 | 93 | 0.0 | 1.6 | 0.00 | 0.00 | 0.00 | 73 | 1412.9 |
| 20260507001150 | 4 | 92 | 0.0 | 1.6 | 0.00 | 0.00 | 0.00 | 73 | 1413.1 |
| 20260507000950 | 4 | 92 | 0.0 | 0.0 | 0.00 | 0.00 | 0.00 | 73 | 1413.4 |
| 20260507000750 | 4 | 101 | 0.0 | 1.6 | 0.00 | 0.00 | 0.00 | 73 | 1413.5 |
| 20260507000550 | 4 | 100 | 0.0 | 1.6 | 0.00 | 0.00 | 0.00 | 73 | 1413.5 |
| 20260507000350 | 4 | 119 | 0.0 | 1.6 | 0.00 | 0.00 | 0.00 | 72 | 1413.5 |
| 20260507000150 | 5 | 195 | 0.0 | 1.6 | 0.00 | 0.00 | 0.00 | 72 | 1413.8 |
| 20260506235950 | 5 | 114 | 0.0 | 1.6 | 0.00 | 0.00 | 0.00 | 72 | 1414.3 |
| 20260506235750 | 5 | 132 | 0.0 | 1.6 | 0.00 | 0.00 | 0.00 | 72 | 1410.9 |
| 20260506235550 | 5 | 84 | 0.0 | 1.6 | 0.00 | 0.00 | 0.00 | 71 | 1411.1 |
| 20260506235350 | 5 | 148 | 0.0 | 3.2 | 0.00 | 0.00 | 0.00 | 71 | 1411.5 |
| 20260506235150 | 5 | 167 | 0.0 | 3.2 | 0.00 | 0.00 | 0.00 | 71 | 1412.0 |
| 20260506234950 | 5 | 92 | 0.0 | 3.2 | 0.00 | 0.00 | 0.00 | 70 | 1412.5 |
| 20260506234750 | 6 | 175 | 0.0 | 3.2 | 0.00 | 0.00 | 0.00 | 70 | 1412.9 |
| 20260506234550 | 6 | 190 | 0.0 | 3.2 | 0.00 | 0.00 | 0.00 | 69 | 1413.5 |
| 20260506234350 | 6 | 136 | 0.0 | 3.2 | 0.00 | 0.00 | 0.00 | 69 | 1414.0 |
| 20260506234150 | 6 | 103 | 0.0 | 3.2 | 0.00 | 0.00 | 0.00 | 69 | 1414.3 |
| 20260506233950 | 6 | 161 | 0.0 | 3.2 | 0.00 | 0.00 | 0.00 | 69 | 1414.6 |
| 20260506233750 | 6 | 172 | 0.0 | 4.8 | 0.00 | 0.00 | 0.00 | 69 | 1414.8 |
| 20260506233550 | 6 | 230 | 0.0 | 4.8 | 0.00 | 0.00 | 0.00 | 69 | 1415.1 |
| 20260506233350 | 6 | 170 | 0.0 | 4.8 | 0.00 | 0.00 | 0.00 | 69 | 1415.3 |
| 20260506233150 | 6 | 190 | 1.6 | 4.8 | 0.00 | 0.00 | 0.00 | 70 | 1415.3 |
| 20260506232950 | 6 | 211 | 1.6 | 4.8 | 0.00 | 0.00 | 0.00 | 70 | 1415.1 |
| 20260506232750 | 6 | 210 | 1.6 | 3.2 | 0.00 | 0.00 | 0.00 | 71 | 1415.0 |
| 20260506232550 | 6 | 230 | 0.0 | 3.2 | 0.00 | 0.00 | 0.00 | 71 | 1415.1 |
| 20260506232350 | 6 | 170 | 0.0 | 3.2 | 0.00 | 0.00 | 0.00 | 71 | 1415.2 |
| 20260506232150 | 6 | 153 | 0.0 | 6.4 | 0.00 | 0.00 | 0.00 | 71 | 1415.4 |
| 20260506231950 | 7 | 204 | 1.6 | 6.4 | 0.00 | 0.00 | 0.00 | 71 | 1415.5 |
| 20260506231750 | 7 | 165 | 0.0 | 6.4 | 0.00 | 0.00 | 0.00 | 71 | 1415.6 |
| 20260506231550 | 7 | 205 | 1.6 | 6.4 | 0.00 | 0.00 | 0.00 | 71 | 1415.6 |
| 20260506231350 | 7 | 166 | 1.6 | 6.4 | 0.00 | 0.00 | 0.00 | 71 | 1415.5 |
| 20260506231150 | 6 | 203 | 1.6 | 6.4 | 0.00 | 0.00 | 0.00 | 71 | 1415.4 |
| 20260506230951 | 7 | 193 | 0.0 | 8.0 | 0.00 | 0.00 | 0.00 | 71 | 1415.6 |
| 20260506230750 | 7 | 151 | 0.0 | 8.0 | 0.00 | 0.00 | 0.00 | 71 | 1415.9 |
| 20260506230550 | 7 | 183 | 0.0 | 8.0 | 0.00 | 0.00 | 0.00 | 71 | 1416.2 |
| 20260506230350 | 7 | 198 | 1.6 | 8.0 | 0.00 | 0.00 | 0.00 | 70 | 1416.2 |
| 20260506230150 | 7 | 188 | 1.6 | 4.8 | 0.00 | 0.00 | 0.00 | 70 | 1416.2 |
| 20260506225950 | 7 | 197 | 1.6 | 6.4 | 0.00 | 0.00 | 0.00 | 70 | 1416.3 |
| 20260506225750 | 7 | 198 | 1.6 | 6.4 | 0.00 | 0.00 | 0.00 | 70 | 1416.4 |
| 20260506225550 | 7 | 192 | 1.6 | 6.4 | 0.00 | 0.00 | 0.00 | 70 | 1416.4 |
| 20260506225350 | 7 | 225 | 1.6 | 6.4 | 0.00 | 0.00 | 0.00 | 70 | 1416.3 |
| 20260506225150 | 7 | 222 | 1.6 | 6.4 | 0.00 | 0.00 | 0.00 | 69 | 1416.1 |
| 20260506224950 | 7 | 167 | 0.0 | 6.4 | 0.00 | 0.00 | 0.00 | 68 | 1416.0 |
| 20260506224750 | 7 | 216 | 1.6 | 6.4 | 0.00 | 0.00 | 0.00 | 68 | 1416.0 |
| 20260506224550 | 7 | 217 | 1.6 | 6.4 | 0.00 | 0.00 | 0.00 | 69 | 1416.0 |
| 20260506224350 | 7 | 207 | 1.6 | 6.4 | 0.00 | 0.00 | 0.00 | 69 | 1415.9 |
| 20260506224150 | 7 | 247 | 1.6 | 6.4 | 0.00 | 0.00 | 0.00 | 69 | 1415.8 |
| 20260506223950 | 7 | 220 | 1.6 | 4.8 | 0.00 | 0.00 | 0.00 | 68 | 1415.6 |
| 20260506223750 | 7 | 155 | 0.0 | 3.2 | 0.00 | 0.00 | 0.00 | 68 | 1415.7 |
| 20260506223550 | 7 | 104 | 0.0 | 3.2 | 0.00 | 0.00 | 0.00 | 68 | 1415.7 |
| 20260506223350 | 7 | 204 | 1.6 | 4.8 | 0.00 | 0.00 | 0.00 | 68 | 1415.8 |
| 20260506223150 | 7 | 191 | 1.6 | 6.4 | 0.00 | 0.00 | 0.00 | 68 | 1415.9 |
| 20260506222950 | 7 | 173 | 1.6 | 6.4 | 0.00 | 0.00 | 0.00 | 68 | 1416.0 |
| 20260506222750 | 7 | 178 | 0.0 | 6.4 | 0.00 | 0.00 | 0.00 | 68 | 1416.2 |
| 20260506222550 | 7 | 194 | 1.6 | 6.4 | 0.00 | 0.00 | 0.00 | 68 | 1416.2 |
| 20260506222352 | 7 | 176 | 1.6 | 6.4 | 0.00 | 0.00 | 0.00 | 67 | 1416.1 |
| 20260506222150 | 7 | 225 | 1.6 | 4.8 | 0.00 | 0.00 | 0.00 | 67 | 1416.1 |
| 20260506221951 | 7 | 214 | 1.6 | 4.8 | 0.00 | 0.00 | 0.00 | 67 | 1416.1 |
| 20260506221750 | 7 | 196 | 1.6 | 6.4 | 0.00 | 0.00 | 0.00 | 67 | 1416.2 |
| 20260506221550 | 7 | 198 | 1.6 | 8.0 | 0.00 | 0.00 | 0.00 | 67 | 1416.3 |
| 20260506221350 | 7 | 206 | 1.6 | 8.0 | 0.00 | 0.00 | 0.00 | 67 | 1416.3 |
| 20260506221150 | 7 | 179 | 1.6 | 8.0 | 0.00 | 0.00 | 0.00 | 67 | 1416.4 |
| 20260506220950 | 7 | 199 | 3.2 | 8.0 | 0.00 | 0.00 | 0.00 | 67 | 1413.2 |
| 20260506220750 | 7 | 174 | 1.6 | 6.4 | 0.00 | 0.00 | 0.00 | 67 | 1416.6 |
| 20260506220550 | 7 | 231 | 1.6 | 6.4 | 0.00 | 0.00 | 0.00 | 67 | 1413.2 |
| 20260506220350 | 7 | 274 | 3.2 | 6.4 | 0.00 | 0.00 | 0.00 | 67 | 1416.6 |
| 20260506220150 | 7 | 197 | 1.6 | 6.4 | 0.00 | 0.00 | 0.00 | 66 | 1416.5 |
| 20260506215950 | 7 | 198 | 1.6 | 6.4 | 0.00 | 0.00 | 0.00 | 66 | 1416.5 |
| 20260506215750 | 7 | 193 | 1.6 | 6.4 | 0.00 | 0.00 | 0.00 | 66 | 1413.2 |
| 20260506215550 | 7 | 221 | 3.2 | 6.4 | 0.00 | 0.00 | 0.00 | 66 | 1416.5 |
| 20260506215350 | 7 | 187 | 1.6 | 6.4 | 0.00 | 0.00 | 0.00 | 65 | 1416.5 |
| 20260506215150 | 7 | 192 | 1.6 | 6.4 | 0.00 | 0.00 | 0.00 | 65 | 1413.2 |
| 20260506214950 | 7 | 180 | 1.6 | 6.4 | 0.00 | 0.00 | 0.00 | 65 | 1413.3 |
| 20260506214750 | 7 | 150 | 1.6 | 6.4 | 0.00 | 0.00 | 0.00 | 64 | 1413.3 |
| 20260506214550 | 7 | 183 | 1.6 | 6.4 | 0.00 | 0.00 | 0.00 | 64 | 1413.4 |
| 20260506214350 | 7 | 198 | 1.6 | 6.4 | 0.00 | 0.00 | 0.00 | 63 | 1416.8 |
| 20260506214150 | 7 | 216 | 1.6 | 6.4 | 0.00 | 0.00 | 0.00 | 63 | 1416.9 |
| 20260506213950 | 7 | 195 | 1.6 | 9.7 | 0.00 | 0.00 | 0.00 | 63 | 1417.0 |